Time,TemperatureF,DewpointF,PressureIn,WindDirection,WindDirectionDegrees,WindSpeedMPH,WindSpeedGustMPH,Humidity,HourlyPrecipIn,Conditions,Clouds,dailyrainin,SoftwareType,DateUTC
2013-06-15 00:00:00,67.2,56.7,30.08,South,180,0.0,0.0,69,0.00,,,0.00,VWS V14.01,2013-06-15 05:00:00,
2013-06-15 00:01:00,67.2,56.3,30.08,South,180,0.0,0.0,68,0.00,,,0.00,VWS V14.01,2013-06-15 05:01:00,
2013-06-15 00:02:00,67.2,56.7,30.08,South,180,0.0,0.0,69,0.00,,,0.00,VWS V14.01,2013-06-15 05:02:00,
2013-06-15 00:03:00,67.2,56.7,30.08,South,180,0.0,0.0,69,0.00,,,0.00,VWS V14.01,2013-06-15 05:03:00,
2013-06-15 00:04:00,67.2,56.7,30.10,South,180,0.0,0.0,69,0.00,,,0.00,VWS V14.01,2013-06-15 05:04:00,
2013-06-15 00:05:00,67.2,56.7,30.10,South,180,0.0,0.0,69,0.00,,,0.00,VWS V14.01,2013-06-15 05:05:00,
2013-06-15 00:06:00,67.2,56.7,30.10,South,180,0.0,0.0,69,0.00,,,0.00,VWS V14.01,2013-06-15 05:06:00,
2013-06-15 00:07:00,67.2,57.1,30.10,South,180,4.4,4.4,70,0.00,,,0.00,VWS V14.01,2013-06-15 05:07:00,
2013-06-15 00:08:00,67.2,57.1,30.09,South,180,4.4,4.4,70,0.00,,,0.00,VWS V14.01,2013-06-15 05:08:00,
2013-06-15 00:09:00,67.2,57.1,30.09,South,180,0.0,4.4,70,0.00,,,0.00,VWS V14.01,2013-06-15 05:09:00,
2013-06-15 00:10:00,67.2,57.1,30.10,South,180,0.0,0.0,70,0.00,,,0.00,VWS V14.01,2013-06-15 05:10:00,
2013-06-15 00:11:00,67.2,57.1,30.09,South,180,0.0,0.0,70,0.00,,,0.00,VWS V14.01,2013-06-15 05:11:00,
2013-06-15 00:12:00,67.2,57.1,30.10,SSW,202,0.0,0.0,70,0.00,,,0.00,VWS V14.01,2013-06-15 05:12:00,
2013-06-15 00:13:00,67.2,57.1,30.10,SSW,202,0.0,0.0,70,0.00,,,0.00,VWS V14.01,2013-06-15 05:13:00,
2013-06-15 00:14:00,67.2,57.1,30.10,SSW,202,0.0,0.0,70,0.00,,,0.00,VWS V14.01,2013-06-15 05:14:00,
2013-06-15 00:15:00,67.2,57.1,30.10,SSW,202,0.0,0.0,70,0.00,,,0.00,VWS V14.01,2013-06-15 05:15:00,
2013-06-15 00:16:00,67.2,57.1,30.10,SSW,202,0.0,0.0,70,0.00,,,0.00,VWS V14.01,2013-06-15 05:16:00,
2013-06-15 00:17:00,67.2,57.1,30.10,SSW,202,0.0,0.0,70,0.00,,,0.00,VWS V14.01,2013-06-15 05:17:00,
2013-06-15 00:18:00,67.2,57.1,30.10,SSW,202,0.0,0.0,70,0.00,,,0.00,VWS V14.01,2013-06-15 05:18:00,
2013-06-15 00:19:00,67.2,57.1,30.10,SSW,202,0.0,0.0,70,0.00,,,0.00,VWS V14.01,2013-06-15 05:19:00,
2013-06-15 00:20:00,67.2,57.1,30.10,SSW,202,0.0,0.0,70,0.00,,,0.00,VWS V14.01,2013-06-15 05:20:00,
2013-06-15 00:21:00,67.2,57.1,30.10,SSW,202,0.0,0.0,70,0.00,,,0.00,VWS V14.01,2013-06-15 05:21:00,
2013-06-15 00:22:00,67.4,57.3,30.10,South,180,2.9,2.9,70,0.00,,,0.00,VWS V14.01,2013-06-15 05:22:00,
2013-06-15 00:23:00,67.4,57.3,30.10,South,180,2.9,2.9,70,0.00,,,0.00,VWS V14.01,2013-06-15 05:23:00,
2013-06-15 00:24:00,67.6,57.5,30.10,South,180,0.0,2.9,70,0.00,,,0.00,VWS V14.01,2013-06-15 05:24:00,
2013-06-15 00:25:00,67.6,57.5,30.10,South,180,0.0,0.0,70,0.00,,,0.00,VWS V14.01,2013-06-15 05:25:00,
2013-06-15 00:26:00,67.6,57.5,30.10,South,180,0.0,0.0,70,0.00,,,0.00,VWS V14.01,2013-06-15 05:26:00,
2013-06-15 00:27:00,67.6,57.5,30.10,SE,135,0.0,0.0,70,0.00,,,0.00,VWS V14.01,2013-06-15 05:27:00,
2013-06-15 00:28:00,67.2,57.1,30.10,SE,135,0.0,0.0,70,0.00,,,0.00,VWS V14.01,2013-06-15 05:28:00,
2013-06-15 00:29:00,67.2,57.1,30.10,SE,135,0.0,0.0,70,0.00,,,0.00,VWS V14.01,2013-06-15 05:29:00,
2013-06-15 00:30:00,67.4,57.3,30.10,SSE,158,0.0,0.0,70,0.00,,,0.00,VWS V14.01,2013-06-15 05:30:00,
2013-06-15 00:31:00,67.2,57.1,30.10,SE,135,0.0,0.0,70,0.00,,,0.00,VWS V14.01,2013-06-15 05:31:00,
2013-06-15 00:32:00,67.2,57.1,30.10,South,180,0.0,0.0,70,0.00,,,0.00,VWS V14.01,2013-06-15 05:32:00,
2013-06-15 00:33:00,67.2,57.1,30.10,South,180,0.0,0.0,70,0.00,,,0.00,VWS V14.01,2013-06-15 05:33:00,
2013-06-15 00:34:00,67.2,57.5,30.10,SE,135,0.0,0.0,71,0.00,,,0.00,VWS V14.01,2013-06-15 05:34:00,
2013-06-15 00:35:00,67.2,57.5,30.09,SE,135,0.0,0.0,71,0.00,,,0.00,VWS V14.01,2013-06-15 05:35:00,
2013-06-15 00:36:00,67.2,57.5,30.10,SE,135,0.0,0.0,71,0.00,,,0.00,VWS V14.01,2013-06-15 05:36:00,
2013-06-15 00:37:00,66.9,57.6,30.09,ESE,112,0.0,0.0,72,0.00,,,0.00,VWS V14.01,2013-06-15 05:37:00,
2013-06-15 00:38:00,66.9,57.6,30.09,ESE,112,0.0,0.0,72,0.00,,,0.00,VWS V14.01,2013-06-15 05:38:00,
2013-06-15 00:39:00,66.3,57.0,30.09,ESE,112,0.0,0.0,72,0.00,,,0.00,VWS V14.01,2013-06-15 05:39:00,
2013-06-15 00:40:00,66.3,57.0,30.09,ESE,112,0.0,0.0,72,0.00,,,0.00,VWS V14.01,2013-06-15 05:40:00,
2013-06-15 00:41:00,66.3,57.0,30.09,ESE,112,0.0,0.0,72,0.00,,,0.00,VWS V14.01,2013-06-15 05:41:00,
2013-06-15 00:42:00,66.3,57.4,30.09,ESE,112,0.0,0.0,73,0.00,,,0.00,VWS V14.01,2013-06-15 05:42:00,
2013-06-15 00:43:00,66.3,57.4,30.09,ESE,112,0.0,0.0,73,0.00,,,0.00,VWS V14.01,2013-06-15 05:43:00,
2013-06-15 00:44:00,66.3,57.4,30.09,ESE,112,0.0,0.0,73,0.00,,,0.00,VWS V14.01,2013-06-15 05:44:00,
2013-06-15 00:45:00,66.2,57.7,30.09,ESE,112,0.0,0.0,74,0.00,,,0.00,VWS V14.01,2013-06-15 05:45:00,
2013-06-15 00:46:00,66.3,57.4,30.09,ESE,112,0.0,0.0,73,0.00,,,0.00,VWS V14.01,2013-06-15 05:46:00,
2013-06-15 00:47:00,66.0,57.5,30.09,ESE,112,0.0,0.0,74,0.00,,,0.00,VWS V14.01,2013-06-15 05:47:00,
2013-06-15 00:48:00,66.0,57.5,30.09,ESE,112,0.0,0.0,74,0.00,,,0.00,VWS V14.01,2013-06-15 05:48:00,
2013-06-15 00:49:00,66.0,57.5,30.09,ESE,112,0.0,0.0,74,0.00,,,0.00,VWS V14.01,2013-06-15 05:49:00,
2013-06-15 00:50:00,66.0,57.5,30.09,ESE,112,0.0,0.0,74,0.00,,,0.00,VWS V14.01,2013-06-15 05:50:00,
2013-06-15 00:51:00,66.0,57.5,30.09,ESE,112,0.0,0.0,74,0.00,,,0.00,VWS V14.01,2013-06-15 05:51:00,
2013-06-15 00:52:00,66.0,57.5,30.09,ESE,112,0.0,0.0,74,0.00,,,0.00,VWS V14.01,2013-06-15 05:52:00,
2013-06-15 00:53:00,66.0,57.5,30.09,ESE,112,0.0,0.0,74,0.00,,,0.00,VWS V14.01,2013-06-15 05:53:00,
2013-06-15 00:54:00,66.0,57.5,30.09,ESE,112,0.0,0.0,74,0.00,,,0.00,VWS V14.01,2013-06-15 05:54:00,
2013-06-15 00:55:00,66.0,57.5,30.09,ESE,112,0.0,0.0,74,0.00,,,0.00,VWS V14.01,2013-06-15 05:55:00,
2013-06-15 00:56:00,66.0,57.5,30.09,ESE,112,0.0,0.0,74,0.00,,,0.00,VWS V14.01,2013-06-15 05:56:00,
2013-06-15 00:57:00,65.8,57.3,30.09,ESE,112,1.7,1.7,74,0.00,,,0.00,VWS V14.01,2013-06-15 05:57:00,
2013-06-15 00:58:00,66.0,57.5,30.09,ESE,112,0.0,1.7,74,0.00,,,0.00,VWS V14.01,2013-06-15 05:58:00,
2013-06-15 00:59:00,66.0,57.5,30.09,ESE,112,0.0,0.0,74,0.00,,,0.00,VWS V14.01,2013-06-15 05:59:00,
2013-06-15 01:00:00,66.0,57.5,30.09,ESE,112,0.8,0.8,74,0.00,,,0.00,VWS V14.01,2013-06-15 06:00:00,
2013-06-15 01:01:00,66.0,57.5,30.09,ESE,112,0.0,0.0,74,0.00,,,0.00,VWS V14.01,2013-06-15 06:01:00,
2013-06-15 01:02:00,66.0,57.5,30.08,ESE,112,0.0,0.8,74,0.00,,,0.00,VWS V14.01,2013-06-15 06:02:00,
2013-06-15 01:03:00,66.0,57.5,30.08,ESE,112,0.0,0.0,74,0.00,,,0.00,VWS V14.01,2013-06-15 06:03:00,
2013-06-15 01:04:00,66.0,57.5,30.08,ESE,112,1.5,1.5,74,0.00,,,0.00,VWS V14.01,2013-06-15 06:04:00,
2013-06-15 01:05:00,66.0,57.5,30.09,ESE,112,1.5,1.5,74,0.00,,,0.00,VWS V14.01,2013-06-15 06:05:00,
2013-06-15 01:06:00,66.0,57.5,30.08,ESE,112,1.5,1.5,74,0.00,,,0.00,VWS V14.01,2013-06-15 06:06:00,
2013-06-15 01:07:00,66.0,57.5,30.08,ESE,112,1.5,1.5,74,0.00,,,0.00,VWS V14.01,2013-06-15 06:07:00,
2013-06-15 01:08:00,66.0,57.5,30.08,ESE,112,1.5,1.5,74,0.00,,,0.00,VWS V14.01,2013-06-15 06:08:00,
2013-06-15 01:09:00,65.8,57.7,30.08,ESE,112,2.6,2.6,75,0.00,,,0.00,VWS V14.01,2013-06-15 06:09:00,
2013-06-15 01:10:00,65.8,57.7,30.08,ESE,112,2.6,2.6,75,0.00,,,0.00,VWS V14.01,2013-06-15 06:10:00,
2013-06-15 01:11:00,65.8,57.7,30.08,ESE,112,2.6,2.6,75,0.00,,,0.00,VWS V14.01,2013-06-15 06:11:00,
2013-06-15 01:12:00,65.8,57.7,30.08,ESE,112,1.3,1.3,75,0.00,,,0.00,VWS V14.01,2013-06-15 06:12:00,
2013-06-15 01:13:00,65.8,57.7,30.08,ESE,112,3.5,3.5,75,0.00,,,0.00,VWS V14.01,2013-06-15 06:13:00,
2013-06-15 01:14:00,65.8,57.7,30.08,ESE,112,3.5,3.5,75,0.00,,,0.00,VWS V14.01,2013-06-15 06:14:00,
2013-06-15 01:15:00,65.6,57.8,30.08,SE,135,3.3,3.5,76,0.00,,,0.00,VWS V14.01,2013-06-15 06:15:00,
2013-06-15 01:16:00,65.8,57.7,30.08,ESE,112,3.5,3.5,75,0.00,,,0.00,VWS V14.01,2013-06-15 06:16:00,
2013-06-15 01:17:00,65.4,57.7,30.08,SE,135,0.0,3.3,76,0.00,,,0.00,VWS V14.01,2013-06-15 06:17:00,
2013-06-15 01:18:00,65.4,57.7,30.08,SE,135,0.0,0.0,76,0.00,,,0.00,VWS V14.01,2013-06-15 06:18:00,
2013-06-15 01:19:00,65.4,57.7,30.08,SE,135,0.0,0.0,76,0.00,,,0.00,VWS V14.01,2013-06-15 06:19:00,
2013-06-15 01:20:00,65.4,57.7,30.08,SE,135,0.0,0.0,76,0.00,,,0.00,VWS V14.01,2013-06-15 06:20:00,
2013-06-15 01:21:00,65.4,57.7,30.08,SE,135,0.0,0.0,76,0.00,,,0.00,VWS V14.01,2013-06-15 06:21:00,
2013-06-15 01:22:00,65.4,57.7,30.09,SE,135,0.0,0.0,76,0.00,,,0.00,VWS V14.01,2013-06-15 06:22:00,
2013-06-15 01:23:00,65.4,57.7,30.09,SE,135,0.0,0.0,76,0.00,,,0.00,VWS V14.01,2013-06-15 06:23:00,
2013-06-15 01:24:00,65.4,57.7,30.09,SE,135,0.0,0.0,76,0.00,,,0.00,VWS V14.01,2013-06-15 06:24:00,
2013-06-15 01:25:00,65.4,57.7,30.09,SE,135,0.0,0.0,76,0.00,,,0.00,VWS V14.01,2013-06-15 06:25:00,
2013-06-15 01:26:00,65.4,57.7,30.09,SE,135,0.0,0.0,76,0.00,,,0.00,VWS V14.01,2013-06-15 06:26:00,
2013-06-15 01:27:00,65.4,57.7,30.08,SE,135,0.0,0.0,76,0.00,,,0.00,VWS V14.01,2013-06-15 06:27:00,
2013-06-15 01:28:00,65.4,57.7,30.08,SE,135,0.0,0.0,76,0.00,,,0.00,VWS V14.01,2013-06-15 06:28:00,
2013-06-15 01:29:00,65.4,57.7,30.08,SE,135,0.0,0.0,76,0.00,,,0.00,VWS V14.01,2013-06-15 06:29:00,
2013-06-15 01:30:00,65.4,58.0,30.08,ESE,112,0.2,0.2,77,0.00,,,0.00,VWS V14.01,2013-06-15 06:30:00,
2013-06-15 01:31:00,65.4,57.7,30.08,SE,135,0.0,0.0,76,0.00,,,0.00,VWS V14.01,2013-06-15 06:31:00,
2013-06-15 01:32:00,65.4,58.0,30.08,SE,135,0.0,0.2,77,0.00,,,0.00,VWS V14.01,2013-06-15 06:32:00,
2013-06-15 01:33:00,65.4,58.0,30.08,SE,135,0.0,0.0,77,0.00,,,0.00,VWS V14.01,2013-06-15 06:33:00,
2013-06-15 01:34:00,65.4,58.0,30.08,ESE,112,0.0,0.0,77,0.00,,,0.00,VWS V14.01,2013-06-15 06:34:00,
2013-06-15 01:35:00,65.4,58.0,30.08,ESE,112,0.0,0.0,77,0.00,,,0.00,VWS V14.01,2013-06-15 06:35:00,
2013-06-15 01:36:00,65.4,58.0,30.08,ESE,112,0.0,0.0,77,0.00,,,0.00,VWS V14.01,2013-06-15 06:36:00,
2013-06-15 01:37:00,65.4,58.0,30.08,ESE,112,0.0,0.0,77,0.00,,,0.00,VWS V14.01,2013-06-15 06:37:00,
2013-06-15 01:38:00,65.4,58.0,30.08,ESE,112,0.0,0.0,77,0.00,,,0.00,VWS V14.01,2013-06-15 06:38:00,
2013-06-15 01:39:00,65.4,58.0,30.08,ESE,112,0.0,0.0,77,0.00,,,0.00,VWS V14.01,2013-06-15 06:39:00,
2013-06-15 01:40:00,65.4,58.0,30.08,ESE,112,0.0,0.0,77,0.00,,,0.00,VWS V14.01,2013-06-15 06:40:00,
2013-06-15 01:41:00,65.4,58.0,30.08,ESE,112,0.0,0.0,77,0.00,,,0.00,VWS V14.01,2013-06-15 06:41:00,
2013-06-15 01:42:00,65.4,58.0,30.08,ESE,112,0.0,0.0,77,0.00,,,0.00,VWS V14.01,2013-06-15 06:42:00,
2013-06-15 01:43:00,65.4,57.7,30.08,SE,135,0.0,0.0,76,0.00,,,0.00,VWS V14.01,2013-06-15 06:43:00,
2013-06-15 01:44:00,65.4,57.7,30.08,SE,135,0.0,0.0,76,0.00,,,0.00,VWS V14.01,2013-06-15 06:44:00,
2013-06-15 01:45:00,65.4,57.7,30.08,SE,135,0.0,0.0,76,0.00,,,0.00,VWS V14.01,2013-06-15 06:45:00,
2013-06-15 01:46:00,65.4,57.7,30.08,SE,135,0.0,0.0,76,0.00,,,0.00,VWS V14.01,2013-06-15 06:46:00,
2013-06-15 01:47:00,65.4,57.7,30.08,SE,135,0.0,0.0,76,0.00,,,0.00,VWS V14.01,2013-06-15 06:47:00,
2013-06-15 01:48:00,65.4,57.7,30.08,SE,135,0.0,0.0,76,0.00,,,0.00,VWS V14.01,2013-06-15 06:48:00,
2013-06-15 01:49:00,65.8,58.0,30.08,SE,135,0.0,0.0,76,0.00,,,0.00,VWS V14.01,2013-06-15 06:49:00,
2013-06-15 01:50:00,65.8,58.0,30.08,SE,135,0.0,0.0,76,0.00,,,0.00,VWS V14.01,2013-06-15 06:50:00,
2013-06-15 01:51:00,65.8,58.0,30.08,SE,135,0.0,0.0,76,0.00,,,0.00,VWS V14.01,2013-06-15 06:51:00,
2013-06-15 01:52:00,65.8,58.0,30.08,SE,135,0.0,0.0,76,0.00,,,0.00,VWS V14.01,2013-06-15 06:52:00,
2013-06-15 01:53:00,65.8,58.0,30.08,SE,135,0.0,0.0,76,0.00,,,0.00,VWS V14.01,2013-06-15 06:53:00,
2013-06-15 01:54:00,65.8,57.7,30.08,SE,135,0.0,0.0,75,0.00,,,0.00,VWS V14.01,2013-06-15 06:54:00,
2013-06-15 01:55:00,65.8,57.7,30.08,SE,135,0.0,0.0,75,0.00,,,0.00,VWS V14.01,2013-06-15 06:55:00,
2013-06-15 01:56:00,65.8,57.7,30.08,SE,135,0.0,0.0,75,0.00,,,0.00,VWS V14.01,2013-06-15 06:56:00,
2013-06-15 01:57:00,65.8,58.0,30.08,SE,135,0.0,0.0,76,0.00,,,0.00,VWS V14.01,2013-06-15 06:57:00,
2013-06-15 01:58:00,65.6,57.8,30.08,SE,135,0.0,0.0,76,0.00,,,0.00,VWS V14.01,2013-06-15 06:58:00,
2013-06-15 01:59:00,65.6,57.8,30.08,SE,135,0.0,0.0,76,0.00,,,0.00,VWS V14.01,2013-06-15 06:59:00,
2013-06-15 02:00:00,65.4,57.7,30.08,SE,135,0.0,0.0,76,0.00,,,0.00,VWS V14.01,2013-06-15 07:00:00,
2013-06-15 02:01:00,65.6,57.8,30.08,SE,135,0.0,0.0,76,0.00,,,0.00,VWS V14.01,2013-06-15 07:01:00,
2013-06-15 02:02:00,65.4,57.7,30.08,SE,135,0.0,0.0,76,0.00,,,0.00,VWS V14.01,2013-06-15 07:02:00,
2013-06-15 02:03:00,65.4,57.7,30.08,SE,135,0.0,0.0,76,0.00,,,0.00,VWS V14.01,2013-06-15 07:03:00,
2013-06-15 02:04:00,65.4,57.7,30.09,SE,135,0.0,0.0,76,0.00,,,0.00,VWS V14.01,2013-06-15 07:04:00,
2013-06-15 02:05:00,65.4,57.7,30.09,SE,135,0.0,0.0,76,0.00,,,0.00,VWS V14.01,2013-06-15 07:05:00,
2013-06-15 02:06:00,65.4,57.7,30.09,SE,135,0.0,0.0,76,0.00,,,0.00,VWS V14.01,2013-06-15 07:06:00,
2013-06-15 02:07:00,65.4,57.7,30.09,SE,135,0.0,0.0,76,0.00,,,0.00,VWS V14.01,2013-06-15 07:07:00,
2013-06-15 02:08:00,65.4,57.7,30.09,SE,135,0.0,0.0,76,0.00,,,0.00,VWS V14.01,2013-06-15 07:08:00,
2013-06-15 02:09:00,65.4,57.7,30.09,SE,135,0.0,0.0,76,0.00,,,0.00,VWS V14.01,2013-06-15 07:09:00,
2013-06-15 02:10:00,65.4,57.7,30.09,SE,135,0.0,0.0,76,0.00,,,0.00,VWS V14.01,2013-06-15 07:10:00,
2013-06-15 02:11:00,65.4,57.7,30.09,SE,135,0.0,0.0,76,0.00,,,0.00,VWS V14.01,2013-06-15 07:11:00,
2013-06-15 02:12:00,65.6,57.8,30.09,SE,135,0.0,0.0,76,0.00,,,0.00,VWS V14.01,2013-06-15 07:12:00,
2013-06-15 02:13:00,65.6,57.8,30.09,SE,135,0.0,0.0,76,0.00,,,0.00,VWS V14.01,2013-06-15 07:13:00,
2013-06-15 02:14:00,65.6,57.8,30.09,SE,135,0.0,0.0,76,0.00,,,0.00,VWS V14.01,2013-06-15 07:14:00,
2013-06-15 02:15:00,65.6,57.8,30.10,SE,135,0.0,0.0,76,0.00,,,0.00,VWS V14.01,2013-06-15 07:15:00,
2013-06-15 02:16:00,65.6,57.8,30.09,SE,135,0.0,0.0,76,0.00,,,0.00,VWS V14.01,2013-06-15 07:16:00,
2013-06-15 02:17:00,65.6,57.8,30.10,SE,135,0.0,0.0,76,0.00,,,0.00,VWS V14.01,2013-06-15 07:17:00,
2013-06-15 02:18:00,65.6,57.8,30.10,SE,135,0.0,0.0,76,0.00,,,0.00,VWS V14.01,2013-06-15 07:18:00,
2013-06-15 02:19:00,65.6,57.8,30.10,SE,135,0.0,0.0,76,0.00,,,0.00,VWS V14.01,2013-06-15 07:19:00,
2013-06-15 02:20:00,65.6,57.8,30.10,SE,135,0.0,0.0,76,0.00,,,0.00,VWS V14.01,2013-06-15 07:20:00,
2013-06-15 02:21:00,65.6,57.8,30.10,SE,135,0.0,0.0,76,0.00,,,0.00,VWS V14.01,2013-06-15 07:21:00,
2013-06-15 02:22:00,65.6,57.8,30.10,SE,135,0.0,0.0,76,0.00,,,0.00,VWS V14.01,2013-06-15 07:22:00,
2013-06-15 02:23:00,65.6,57.8,30.10,SE,135,0.0,0.0,76,0.00,,,0.00,VWS V14.01,2013-06-15 07:23:00,
2013-06-15 02:24:00,65.8,57.7,30.10,SE,135,0.0,0.0,75,0.00,,,0.00,VWS V14.01,2013-06-15 07:24:00,
2013-06-15 02:25:00,65.8,57.7,30.10,SE,135,0.0,0.0,75,0.00,,,0.00,VWS V14.01,2013-06-15 07:25:00,
2013-06-15 02:26:00,65.8,57.7,30.10,SE,135,0.0,0.0,75,0.00,,,0.00,VWS V14.01,2013-06-15 07:26:00,
2013-06-15 02:27:00,65.8,57.7,30.10,SE,135,0.0,0.0,75,0.00,,,0.00,VWS V14.01,2013-06-15 07:27:00,
2013-06-15 02:28:00,65.8,57.7,30.10,SE,135,0.0,0.0,75,0.00,,,0.00,VWS V14.01,2013-06-15 07:28:00,
2013-06-15 02:29:00,65.8,57.7,30.10,SE,135,0.0,0.0,75,0.00,,,0.00,VWS V14.01,2013-06-15 07:29:00,
2013-06-15 02:30:00,66.0,57.9,30.10,SE,135,0.0,0.0,75,0.00,,,0.00,VWS V14.01,2013-06-15 07:30:00,
2013-06-15 02:31:00,65.8,57.7,30.10,SE,135,0.0,0.0,75,0.00,,,0.00,VWS V14.01,2013-06-15 07:31:00,
2013-06-15 02:32:00,66.0,57.9,30.10,SE,135,0.0,0.0,75,0.00,,,0.00,VWS V14.01,2013-06-15 07:32:00,
2013-06-15 02:33:00,66.0,57.9,30.10,SE,135,0.0,0.0,75,0.00,,,0.00,VWS V14.01,2013-06-15 07:33:00,
2013-06-15 02:34:00,66.0,57.9,30.10,SE,135,0.0,0.0,75,0.00,,,0.00,VWS V14.01,2013-06-15 07:34:00,
2013-06-15 02:35:00,66.0,57.9,30.10,SE,135,0.0,0.0,75,0.00,,,0.00,VWS V14.01,2013-06-15 07:35:00,
2013-06-15 02:36:00,66.0,57.9,30.10,SE,135,0.0,0.0,75,0.00,,,0.00,VWS V14.01,2013-06-15 07:36:00,
2013-06-15 02:37:00,66.0,57.9,30.09,SE,135,0.0,0.0,75,0.00,,,0.00,VWS V14.01,2013-06-15 07:37:00,
2013-06-15 02:38:00,66.0,57.9,30.10,SE,135,0.0,0.0,75,0.00,,,0.00,VWS V14.01,2013-06-15 07:38:00,
2013-06-15 02:39:00,66.0,57.9,30.10,SE,135,0.0,0.0,75,0.00,,,0.00,VWS V14.01,2013-06-15 07:39:00,
2013-06-15 02:40:00,66.0,57.9,30.09,SE,135,0.0,0.0,75,0.00,,,0.00,VWS V14.01,2013-06-15 07:40:00,
2013-06-15 02:41:00,66.0,57.9,30.10,SE,135,0.0,0.0,75,0.00,,,0.00,VWS V14.01,2013-06-15 07:41:00,
2013-06-15 02:42:00,66.0,57.9,30.10,SE,135,0.0,0.0,75,0.00,,,0.00,VWS V14.01,2013-06-15 07:42:00,
2013-06-15 02:43:00,66.0,57.9,30.10,SE,135,0.0,0.0,75,0.00,,,0.00,VWS V14.01,2013-06-15 07:43:00,
2013-06-15 02:44:00,66.0,57.9,30.09,SE,135,0.0,0.0,75,0.00,,,0.00,VWS V14.01,2013-06-15 07:44:00,
2013-06-15 02:45:00,66.0,57.9,30.09,SE,135,0.0,0.0,75,0.00,,,0.00,VWS V14.01,2013-06-15 07:45:00,
2013-06-15 02:46:00,66.0,57.9,30.09,SE,135,0.0,0.0,75,0.00,,,0.00,VWS V14.01,2013-06-15 07:46:00,
2013-06-15 02:47:00,66.3,58.2,30.09,SE,135,0.0,0.0,75,0.00,,,0.00,VWS V14.01,2013-06-15 07:47:00,
2013-06-15 02:48:00,66.3,58.2,30.10,SE,135,0.0,0.0,75,0.00,,,0.00,VWS V14.01,2013-06-15 07:48:00,
2013-06-15 02:49:00,66.3,58.2,30.10,SE,135,0.0,0.0,75,0.00,,,0.00,VWS V14.01,2013-06-15 07:49:00,
2013-06-15 02:50:00,66.3,58.2,30.10,SE,135,0.0,0.0,75,0.00,,,0.00,VWS V14.01,2013-06-15 07:50:00,
2013-06-15 02:51:00,66.3,58.2,30.10,SE,135,0.0,0.0,75,0.00,,,0.00,VWS V14.01,2013-06-15 07:51:00,
2013-06-15 02:52:00,66.2,58.0,30.10,SE,135,0.0,0.0,75,0.00,,,0.00,VWS V14.01,2013-06-15 07:52:00,
2013-06-15 02:53:00,66.2,58.0,30.10,SE,135,0.0,0.0,75,0.00,,,0.00,VWS V14.01,2013-06-15 07:53:00,
2013-06-15 02:54:00,66.0,57.9,30.10,SE,135,0.0,0.0,75,0.00,,,0.00,VWS V14.01,2013-06-15 07:54:00,
2013-06-15 02:55:00,66.0,57.9,30.10,SE,135,0.0,0.0,75,0.00,,,0.00,VWS V14.01,2013-06-15 07:55:00,
2013-06-15 02:56:00,66.0,57.9,30.10,SE,135,0.0,0.0,75,0.00,,,0.00,VWS V14.01,2013-06-15 07:56:00,
2013-06-15 02:57:00,66.0,58.2,30.10,SE,135,0.0,0.0,76,0.00,,,0.00,VWS V14.01,2013-06-15 07:57:00,
2013-06-15 02:58:00,66.0,58.2,30.10,SE,135,0.0,0.0,76,0.00,,,0.00,VWS V14.01,2013-06-15 07:58:00,
2013-06-15 02:59:00,66.0,58.2,30.10,SE,135,0.0,0.0,76,0.00,,,0.00,VWS V14.01,2013-06-15 07:59:00,
2013-06-15 03:00:00,65.6,58.2,30.10,SE,135,0.0,0.0,77,0.00,,,0.00,VWS V14.01,2013-06-15 08:00:00,
2013-06-15 03:01:00,66.0,58.2,30.10,SE,135,0.0,0.0,76,0.00,,,0.00,VWS V14.01,2013-06-15 08:01:00,
2013-06-15 03:02:00,65.4,58.0,30.10,SE,135,0.0,0.0,77,0.00,,,0.00,VWS V14.01,2013-06-15 08:02:00,
2013-06-15 03:03:00,65.4,58.0,30.10,SE,135,0.0,0.0,77,0.00,,,0.00,VWS V14.01,2013-06-15 08:03:00,
2013-06-15 03:04:00,65.3,57.9,30.10,SE,135,0.0,0.0,77,0.00,,,0.00,VWS V14.01,2013-06-15 08:04:00,
2013-06-15 03:05:00,65.3,57.9,30.10,SE,135,0.0,0.0,77,0.00,,,0.00,VWS V14.01,2013-06-15 08:05:00,
2013-06-15 03:06:00,65.3,57.9,30.10,SE,135,0.0,0.0,77,0.00,,,0.00,VWS V14.01,2013-06-15 08:06:00,
2013-06-15 03:07:00,65.3,57.9,30.10,SE,135,0.0,0.0,77,0.00,,,0.00,VWS V14.01,2013-06-15 08:07:00,
2013-06-15 03:08:00,65.3,57.9,30.10,SE,135,0.0,0.0,77,0.00,,,0.00,VWS V14.01,2013-06-15 08:08:00,
2013-06-15 03:09:00,65.1,57.7,30.10,SE,135,0.0,0.0,77,0.00,,,0.00,VWS V14.01,2013-06-15 08:09:00,
2013-06-15 03:10:00,65.1,57.7,30.10,SE,135,0.0,0.0,77,0.00,,,0.00,VWS V14.01,2013-06-15 08:10:00,
2013-06-15 03:11:00,65.1,57.7,30.10,SE,135,0.0,0.0,77,0.00,,,0.00,VWS V14.01,2013-06-15 08:11:00,
2013-06-15 03:12:00,65.1,57.7,30.10,SE,135,0.0,0.0,77,0.00,,,0.00,VWS V14.01,2013-06-15 08:12:00,
2013-06-15 03:13:00,65.1,57.7,30.10,SE,135,0.0,0.0,77,0.00,,,0.00,VWS V14.01,2013-06-15 08:13:00,
2013-06-15 03:14:00,65.1,57.7,30.10,SE,135,0.0,0.0,77,0.00,,,0.00,VWS V14.01,2013-06-15 08:14:00,
2013-06-15 03:15:00,65.1,57.7,30.10,SE,135,0.0,0.0,77,0.00,,,0.00,VWS V14.01,2013-06-15 08:15:00,
2013-06-15 03:16:00,65.1,57.7,30.10,SE,135,0.0,0.0,77,0.00,,,0.00,VWS V14.01,2013-06-15 08:16:00,
2013-06-15 03:17:00,65.3,57.9,30.10,SE,135,0.0,0.0,77,0.00,,,0.00,VWS V14.01,2013-06-15 08:17:00,
2013-06-15 03:18:00,65.3,57.9,30.10,SE,135,0.0,0.0,77,0.00,,,0.00,VWS V14.01,2013-06-15 08:18:00,
2013-06-15 03:19:00,65.3,57.9,30.10,SE,135,0.0,0.0,77,0.00,,,0.00,VWS V14.01,2013-06-15 08:19:00,
2013-06-15 03:20:00,65.3,57.9,30.10,SE,135,0.0,0.0,77,0.00,,,0.00,VWS V14.01,2013-06-15 08:20:00,
2013-06-15 03:21:00,65.3,57.9,30.10,SE,135,0.0,0.0,77,0.00,,,0.00,VWS V14.01,2013-06-15 08:21:00,
2013-06-15 03:22:00,65.1,57.7,30.10,SE,135,0.0,0.0,77,0.00,,,0.00,VWS V14.01,2013-06-15 08:22:00,
2013-06-15 03:23:00,65.1,57.7,30.10,SE,135,0.0,0.0,77,0.00,,,0.00,VWS V14.01,2013-06-15 08:23:00,
2013-06-15 03:24:00,65.3,57.9,30.10,SSE,158,0.0,0.0,77,0.00,,,0.00,VWS V14.01,2013-06-15 08:24:00,
2013-06-15 03:25:00,65.3,57.9,30.10,SSE,158,0.0,0.0,77,0.00,,,0.00,VWS V14.01,2013-06-15 08:25:00,
2013-06-15 03:26:00,65.3,57.9,30.10,SSE,158,0.0,0.0,77,0.00,,,0.00,VWS V14.01,2013-06-15 08:26:00,
2013-06-15 03:27:00,65.3,57.9,30.11,SSE,158,0.0,0.0,77,0.00,,,0.00,VWS V14.01,2013-06-15 08:27:00,
2013-06-15 03:28:00,65.4,58.0,30.10,SSE,158,0.0,0.0,77,0.00,,,0.00,VWS V14.01,2013-06-15 08:28:00,
2013-06-15 03:29:00,65.4,58.0,30.10,SSE,158,0.0,0.0,77,0.00,,,0.00,VWS V14.01,2013-06-15 08:29:00,
2013-06-15 03:30:00,65.3,57.9,30.10,South,180,0.0,0.0,77,0.00,,,0.00,VWS V14.01,2013-06-15 08:30:00,
2013-06-15 03:31:00,65.4,58.0,30.10,SSE,158,0.0,0.0,77,0.00,,,0.00,VWS V14.01,2013-06-15 08:31:00,
2013-06-15 03:32:00,65.3,58.3,30.10,South,180,0.0,0.0,78,0.00,,,0.00,VWS V14.01,2013-06-15 08:32:00,
2013-06-15 03:33:00,65.3,58.3,30.10,South,180,0.0,0.0,78,0.00,,,0.00,VWS V14.01,2013-06-15 08:33:00,
2013-06-15 03:34:00,65.1,58.1,30.10,SSW,202,0.0,0.0,78,0.00,,,0.00,VWS V14.01,2013-06-15 08:34:00,
2013-06-15 03:35:00,65.1,58.1,30.10,SSW,202,0.0,0.0,78,0.00,,,0.00,VWS V14.01,2013-06-15 08:35:00,
2013-06-15 03:36:00,65.1,58.1,30.10,SSW,202,0.0,0.0,78,0.00,,,0.00,VWS V14.01,2013-06-15 08:36:00,
2013-06-15 03:37:00,65.1,58.4,30.10,SSW,202,0.0,0.0,79,0.00,,,0.00,VWS V14.01,2013-06-15 08:37:00,
2013-06-15 03:38:00,65.1,58.4,30.10,SSW,202,0.0,0.0,79,0.00,,,0.00,VWS V14.01,2013-06-15 08:38:00,
2013-06-15 03:39:00,65.1,58.4,30.10,SSW,202,0.0,0.0,79,0.00,,,0.00,VWS V14.01,2013-06-15 08:39:00,
2013-06-15 03:40:00,65.1,58.4,30.10,SSW,202,0.0,0.0,79,0.00,,,0.00,VWS V14.01,2013-06-15 08:40:00,
2013-06-15 03:41:00,65.1,58.4,30.10,SSW,202,0.0,0.0,79,0.00,,,0.00,VWS V14.01,2013-06-15 08:41:00,
2013-06-15 03:42:00,65.1,58.4,30.10,SSW,202,0.8,0.8,79,0.00,,,0.00,VWS V14.01,2013-06-15 08:42:00,
2013-06-15 03:43:00,65.1,58.4,30.10,SSW,202,0.0,0.8,79,0.00,,,0.00,VWS V14.01,2013-06-15 08:43:00,
2013-06-15 03:44:00,65.1,58.4,30.10,SSW,202,0.0,0.0,79,0.00,,,0.00,VWS V14.01,2013-06-15 08:44:00,
2013-06-15 03:45:00,65.1,58.4,30.10,SSW,202,2.9,2.9,79,0.00,,,0.00,VWS V14.01,2013-06-15 08:45:00,
2013-06-15 03:46:00,65.1,58.4,30.10,SSW,202,0.0,0.0,79,0.00,,,0.00,VWS V14.01,2013-06-15 08:46:00,
2013-06-15 03:47:00,65.1,58.4,30.10,SSW,202,3.5,3.5,79,0.00,,,0.00,VWS V14.01,2013-06-15 08:47:00,
2013-06-15 03:48:00,65.1,58.4,30.09,SSW,202,3.5,3.5,79,0.00,,,0.00,VWS V14.01,2013-06-15 08:48:00,
2013-06-15 03:49:00,65.3,58.6,30.09,SSW,202,1.1,3.5,79,0.00,,,0.00,VWS V14.01,2013-06-15 08:49:00,
2013-06-15 03:50:00,65.3,58.6,30.10,SSW,202,1.1,1.1,79,0.00,,,0.00,VWS V14.01,2013-06-15 08:50:00,
2013-06-15 03:51:00,65.3,58.6,30.09,SSW,202,1.1,1.1,79,0.00,,,0.00,VWS V14.01,2013-06-15 08:51:00,
2013-06-15 03:52:00,65.4,58.7,30.10,South,180,0.0,0.0,79,0.00,,,0.00,VWS V14.01,2013-06-15 08:52:00,
2013-06-15 03:53:00,65.4,58.7,30.09,South,180,0.0,0.0,79,0.00,,,0.00,VWS V14.01,2013-06-15 08:53:00,
2013-06-15 03:54:00,65.4,58.7,30.09,SSE,158,0.0,0.0,79,0.00,,,0.00,VWS V14.01,2013-06-15 08:54:00,
2013-06-15 03:55:00,65.4,58.7,30.09,SSE,158,0.0,0.0,79,0.00,,,0.00,VWS V14.01,2013-06-15 08:55:00,
2013-06-15 03:56:00,65.4,58.7,30.09,SSE,158,0.0,0.0,79,0.00,,,0.00,VWS V14.01,2013-06-15 08:56:00,
2013-06-15 03:57:00,65.4,58.7,30.09,South,180,0.0,0.0,79,0.00,,,0.00,VWS V14.01,2013-06-15 08:57:00,
2013-06-15 03:58:00,65.4,58.7,30.09,SE,135,0.0,0.0,79,0.00,,,0.00,VWS V14.01,2013-06-15 08:58:00,
2013-06-15 03:59:00,65.4,58.7,30.09,SE,135,0.0,0.0,79,0.00,,,0.00,VWS V14.01,2013-06-15 08:59:00,
2013-06-15 04:00:00,65.4,58.7,30.09,SE,135,0.0,0.0,79,0.00,,,0.00,VWS V14.01,2013-06-15 09:00:00,
2013-06-15 04:01:00,65.4,58.7,30.08,South,180,0.0,0.0,79,0.00,,,0.00,VWS V14.01,2013-06-15 09:01:00,
2013-06-15 04:02:00,65.6,58.9,30.09,South,180,0.0,0.0,79,0.00,,,0.00,VWS V14.01,2013-06-15 09:02:00,
2013-06-15 04:03:00,65.6,58.9,30.08,South,180,0.0,0.0,79,0.00,,,0.00,VWS V14.01,2013-06-15 09:03:00,
2013-06-15 04:04:00,65.8,59.1,30.08,SSW,202,0.0,0.0,79,0.00,,,0.00,VWS V14.01,2013-06-15 09:04:00,
2013-06-15 04:05:00,65.8,59.1,30.08,SSW,202,0.0,0.0,79,0.00,,,0.00,VWS V14.01,2013-06-15 09:05:00,
2013-06-15 04:06:00,65.8,59.1,30.07,South,180,0.0,0.0,79,0.00,,,0.00,VWS V14.01,2013-06-15 09:06:00,
2013-06-15 04:07:00,66.0,59.3,30.07,South,180,0.0,0.0,79,0.00,,,0.00,VWS V14.01,2013-06-15 09:07:00,
2013-06-15 04:08:00,66.0,59.3,30.07,SE,135,0.0,0.0,79,0.00,,,0.00,VWS V14.01,2013-06-15 09:08:00,
2013-06-15 04:09:00,66.0,59.3,30.07,SE,135,0.0,0.0,79,0.00,,,0.00,VWS V14.01,2013-06-15 09:09:00,
2013-06-15 04:10:00,66.0,59.3,30.07,SE,135,0.0,0.0,79,0.00,,,0.00,VWS V14.01,2013-06-15 09:10:00,
2013-06-15 04:11:00,66.0,59.3,30.07,SE,135,0.0,0.0,79,0.00,,,0.00,VWS V14.01,2013-06-15 09:11:00,
2013-06-15 04:12:00,66.0,59.3,30.07,SE,135,0.0,0.0,79,0.00,,,0.00,VWS V14.01,2013-06-15 09:12:00,
2013-06-15 04:13:00,66.3,59.6,30.07,South,180,0.0,0.0,79,0.00,,,0.00,VWS V14.01,2013-06-15 09:13:00,
2013-06-15 04:14:00,66.3,59.6,30.07,South,180,0.0,0.0,79,0.00,,,0.00,VWS V14.01,2013-06-15 09:14:00,
2013-06-15 04:15:00,66.3,59.6,30.07,South,180,0.0,0.0,79,0.00,,,0.00,VWS V14.01,2013-06-15 09:15:00,
2013-06-15 04:16:00,66.5,59.4,30.07,SSE,158,0.0,0.0,78,0.00,,,0.00,VWS V14.01,2013-06-15 09:16:00,
2013-06-15 04:17:00,66.7,59.6,30.07,South,180,0.0,0.0,78,0.00,,,0.00,VWS V14.01,2013-06-15 09:17:00,
2013-06-15 04:18:00,66.7,59.6,30.07,South,180,0.0,0.0,78,0.00,,,0.00,VWS V14.01,2013-06-15 09:18:00,
2013-06-15 04:19:00,66.9,59.8,30.07,SSE,158,0.0,0.0,78,0.00,,,0.00,VWS V14.01,2013-06-15 09:19:00,
2013-06-15 04:20:00,66.9,59.8,30.07,SSE,158,0.0,0.0,78,0.00,,,0.00,VWS V14.01,2013-06-15 09:20:00,
2013-06-15 04:21:00,67.2,60.1,30.07,SSE,158,0.0,0.0,78,0.00,,,0.00,VWS V14.01,2013-06-15 09:21:00,
2013-06-15 04:22:00,67.2,59.8,30.07,SSW,202,6.0,6.0,77,0.00,,,0.00,VWS V14.01,2013-06-15 09:22:00,
2013-06-15 04:23:00,67.2,59.8,30.07,SSW,202,6.0,6.0,77,0.00,,,0.00,VWS V14.01,2013-06-15 09:23:00,
2013-06-15 04:24:00,67.4,60.0,30.07,SSW,202,4.2,6.0,77,0.00,,,0.00,VWS V14.01,2013-06-15 09:24:00,
2013-06-15 04:25:00,67.4,60.0,30.07,SSW,202,4.2,4.2,77,0.00,,,0.00,VWS V14.01,2013-06-15 09:25:00,
2013-06-15 04:26:00,67.6,60.1,30.07,South,180,0.0,4.2,77,0.00,,,0.00,VWS V14.01,2013-06-15 09:26:00,
2013-06-15 04:27:00,67.6,60.1,30.07,South,180,0.0,0.0,77,0.00,,,0.00,VWS V14.01,2013-06-15 09:27:00,
2013-06-15 04:28:00,67.8,60.0,30.07,SSW,202,0.0,0.0,76,0.00,,,0.00,VWS V14.01,2013-06-15 09:28:00,
2013-06-15 04:29:00,67.8,60.0,30.07,SSW,202,0.0,0.0,76,0.00,,,0.00,VWS V14.01,2013-06-15 09:29:00,
2013-06-15 04:30:00,67.8,60.0,30.07,SSW,202,0.0,0.0,76,0.00,,,0.00,VWS V14.01,2013-06-15 09:30:00,
2013-06-15 04:31:00,67.8,60.0,30.06,SE,135,0.0,0.0,76,0.00,,,0.00,VWS V14.01,2013-06-15 09:31:00,
2013-06-15 04:32:00,67.8,60.0,30.06,SE,135,0.0,0.0,76,0.00,,,0.00,VWS V14.01,2013-06-15 09:32:00,
2013-06-15 04:33:00,67.8,60.0,30.06,SE,135,0.0,0.0,76,0.00,,,0.00,VWS V14.01,2013-06-15 09:33:00,
2013-06-15 04:34:00,67.8,60.0,30.05,SE,135,0.0,0.0,76,0.00,,,0.00,VWS V14.01,2013-06-15 09:34:00,
2013-06-15 04:35:00,67.8,60.0,30.05,SE,135,0.0,0.0,76,0.00,,,0.00,VWS V14.01,2013-06-15 09:35:00,
2013-06-15 04:36:00,67.8,60.0,30.05,SE,135,2.4,2.4,76,0.00,,,0.00,VWS V14.01,2013-06-15 09:36:00,
2013-06-15 04:37:00,67.6,59.8,30.05,SE,135,2.4,2.4,76,0.00,,,0.00,VWS V14.01,2013-06-15 09:37:00,
2013-06-15 04:38:00,67.6,59.8,30.05,SE,135,2.4,2.4,76,0.00,,,0.00,VWS V14.01,2013-06-15 09:38:00,
2013-06-15 04:39:00,67.2,59.8,30.05,SE,135,6.9,6.9,77,0.00,,,0.00,VWS V14.01,2013-06-15 09:39:00,
2013-06-15 04:40:00,67.2,59.8,30.05,SE,135,6.9,6.9,77,0.00,,,0.00,VWS V14.01,2013-06-15 09:40:00,
2013-06-15 04:41:00,67.2,59.4,30.05,SE,135,6.9,6.9,76,0.00,,,0.00,VWS V14.01,2013-06-15 09:41:00,
2013-06-15 04:42:00,67.2,59.4,30.05,SE,135,6.9,6.9,76,0.00,,,0.00,VWS V14.01,2013-06-15 09:42:00,
2013-06-15 04:43:00,67.1,59.7,30.05,SE,135,1.1,6.9,77,0.00,,,0.00,VWS V14.01,2013-06-15 09:43:00,
2013-06-15 04:44:00,67.1,59.7,30.05,SE,135,1.1,1.1,77,0.00,,,0.00,VWS V14.01,2013-06-15 09:44:00,
2013-06-15 04:45:00,67.1,59.7,30.05,SE,135,1.1,1.1,77,0.00,,,0.00,VWS V14.01,2013-06-15 09:45:00,
2013-06-15 04:46:00,66.7,59.3,30.05,SE,135,1.1,1.1,77,0.00,,,0.00,VWS V14.01,2013-06-15 09:46:00,
2013-06-15 04:47:00,66.3,58.9,30.04,ESE,112,0.4,1.1,77,0.00,,,0.00,VWS V14.01,2013-06-15 09:47:00,
2013-06-15 04:48:00,66.3,58.9,30.04,ESE,112,0.4,0.4,77,0.00,,,0.00,VWS V14.01,2013-06-15 09:48:00,
2013-06-15 04:49:00,66.0,59.0,30.04,ESE,112,1.3,1.3,78,0.00,,,0.00,VWS V14.01,2013-06-15 09:49:00,
2013-06-15 04:50:00,66.0,59.0,30.04,ESE,112,1.3,1.3,78,0.00,,,0.00,VWS V14.01,2013-06-15 09:50:00,
2013-06-15 04:51:00,65.8,58.8,30.04,ESE,112,1.1,1.3,78,0.00,,,0.00,VWS V14.01,2013-06-15 09:51:00,
2013-06-15 04:52:00,65.8,58.8,30.04,ESE,112,1.1,1.1,78,0.00,,,0.00,VWS V14.01,2013-06-15 09:52:00,
2013-06-15 04:53:00,65.8,58.8,30.04,ESE,112,2.6,2.6,78,0.00,,,0.00,VWS V14.01,2013-06-15 09:53:00,
2013-06-15 04:54:00,65.8,59.1,30.04,ESE,112,2.6,2.6,79,0.00,,,0.00,VWS V14.01,2013-06-15 09:54:00,
2013-06-15 04:55:00,65.8,59.1,30.04,ESE,112,2.6,2.6,79,0.00,,,0.00,VWS V14.01,2013-06-15 09:55:00,
2013-06-15 04:56:00,65.6,58.9,30.03,SE,135,2.2,2.6,79,0.00,,,0.00,VWS V14.01,2013-06-15 09:56:00,
2013-06-15 04:57:00,65.6,58.9,30.03,SE,135,2.2,2.2,79,0.00,,,0.00,VWS V14.01,2013-06-15 09:57:00,
2013-06-15 04:58:00,65.6,58.9,30.03,SE,135,0.0,2.2,79,0.00,,,0.00,VWS V14.01,2013-06-15 09:58:00,
2013-06-15 04:59:00,65.6,58.9,30.03,SE,135,0.0,0.0,79,0.00,,,0.00,VWS V14.01,2013-06-15 09:59:00,
2013-06-15 05:00:00,65.6,58.9,30.03,SE,135,0.0,0.0,79,0.00,,,0.00,VWS V14.01,2013-06-15 10:00:00,
2013-06-15 05:01:00,65.4,58.7,30.03,SE,135,0.8,0.8,79,0.00,,,0.00,VWS V14.01,2013-06-15 10:01:00,
2013-06-15 05:02:00,65.3,58.6,30.03,SE,135,0.0,0.8,79,0.00,,,0.00,VWS V14.01,2013-06-15 10:02:00,
2013-06-15 05:03:00,65.3,58.6,30.03,SE,135,0.0,0.0,79,0.00,,,0.00,VWS V14.01,2013-06-15 10:03:00,
2013-06-15 05:04:00,65.1,58.8,30.03,SE,135,0.4,0.4,80,0.00,,,0.00,VWS V14.01,2013-06-15 10:04:00,
2013-06-15 05:05:00,65.1,58.8,30.03,SE,135,0.4,0.4,80,0.00,,,0.00,VWS V14.01,2013-06-15 10:05:00,
2013-06-15 05:06:00,65.1,58.8,30.02,SE,135,0.4,0.4,80,0.00,,,0.00,VWS V14.01,2013-06-15 10:06:00,
2013-06-15 05:07:00,65.1,58.8,30.02,SE,135,0.0,0.4,80,0.00,,,0.00,VWS V14.01,2013-06-15 10:07:00,
2013-06-15 05:08:00,65.1,58.8,30.02,SE,135,0.0,0.0,80,0.00,,,0.00,VWS V14.01,2013-06-15 10:08:00,
2013-06-15 05:09:00,65.1,58.8,30.02,SSE,158,0.0,0.0,80,0.00,,,0.00,VWS V14.01,2013-06-15 10:09:00,
2013-06-15 05:10:00,65.1,58.8,30.02,SSE,158,0.0,0.0,80,0.00,,,0.00,VWS V14.01,2013-06-15 10:10:00,
2013-06-15 05:11:00,65.1,58.8,30.02,SE,135,0.4,0.4,80,0.00,,,0.00,VWS V14.01,2013-06-15 10:11:00,
2013-06-15 05:12:00,65.1,58.8,30.02,SE,135,0.4,0.4,80,0.00,,,0.00,VWS V14.01,2013-06-15 10:12:00,
2013-06-15 05:13:00,65.1,58.8,30.02,SE,135,5.3,5.3,80,0.00,,,0.00,VWS V14.01,2013-06-15 10:13:00,
2013-06-15 05:14:00,65.1,58.8,30.02,SE,135,5.3,5.3,80,0.00,,,0.00,VWS V14.01,2013-06-15 10:14:00,
2013-06-15 05:15:00,65.1,58.8,30.02,SE,135,5.3,5.3,80,0.00,,,0.00,VWS V14.01,2013-06-15 10:15:00,
2013-06-15 05:16:00,65.1,59.1,30.02,ESE,112,4.0,4.0,81,0.00,,,0.00,VWS V14.01,2013-06-15 10:16:00,
2013-06-15 05:17:00,65.3,59.3,30.01,SE,135,3.3,4.0,81,0.00,,,0.00,VWS V14.01,2013-06-15 10:17:00,
2013-06-15 05:18:00,65.3,59.3,30.01,SE,135,3.3,3.3,81,0.00,,,0.00,VWS V14.01,2013-06-15 10:18:00,
2013-06-15 05:19:00,65.4,59.1,30.01,ESE,112,6.0,6.0,80,0.00,,,0.00,VWS V14.01,2013-06-15 10:19:00,
2013-06-15 05:20:00,65.4,59.1,30.01,ESE,112,6.0,6.0,80,0.00,,,0.00,VWS V14.01,2013-06-15 10:20:00,
2013-06-15 05:21:00,65.4,59.1,30.01,ESE,112,2.6,6.0,80,0.00,,,0.00,VWS V14.01,2013-06-15 10:21:00,
2013-06-15 05:22:00,65.4,59.1,30.01,ESE,112,2.6,2.6,80,0.00,,,0.00,VWS V14.01,2013-06-15 10:22:00,
2013-06-15 05:23:00,65.4,59.1,30.01,ESE,112,6.7,6.7,80,0.00,,,0.00,VWS V14.01,2013-06-15 10:23:00,
2013-06-15 05:24:00,65.6,59.3,30.01,ESE,112,6.7,6.7,80,0.00,,,0.00,VWS V14.01,2013-06-15 10:24:00,
2013-06-15 05:25:00,65.6,59.3,30.01,ESE,112,6.7,6.7,80,0.00,,,0.00,VWS V14.01,2013-06-15 10:25:00,
2013-06-15 05:26:00,65.6,59.3,30.01,East,90,5.1,6.7,80,0.00,,,0.00,VWS V14.01,2013-06-15 10:26:00,
2013-06-15 05:27:00,65.6,59.3,30.01,East,90,5.1,5.1,80,0.00,,,0.00,VWS V14.01,2013-06-15 10:27:00,
2013-06-15 05:28:00,65.6,59.3,30.01,ESE,112,2.0,5.1,80,0.00,,,0.00,VWS V14.01,2013-06-15 10:28:00,
2013-06-15 05:29:00,65.6,59.3,30.01,ESE,112,2.0,2.0,80,0.00,,,0.00,VWS V14.01,2013-06-15 10:29:00,
2013-06-15 05:30:00,65.6,59.3,30.01,ESE,112,2.0,2.0,80,0.00,,,0.00,VWS V14.01,2013-06-15 10:30:00,
2013-06-15 05:31:00,65.6,59.3,30.00,SE,135,4.6,4.6,80,0.00,,,0.00,VWS V14.01,2013-06-15 10:31:00,
2013-06-15 05:32:00,65.6,59.3,30.00,ESE,112,6.9,6.9,80,0.00,,,0.00,VWS V14.01,2013-06-15 10:32:00,
2013-06-15 05:33:00,65.6,59.3,30.00,ESE,112,6.9,6.9,80,0.00,,,0.00,VWS V14.01,2013-06-15 10:33:00,
2013-06-15 05:34:00,65.6,59.3,30.00,East,90,6.0,6.9,80,0.00,,,0.00,VWS V14.01,2013-06-15 10:34:00,
2013-06-15 05:35:00,65.6,59.3,30.00,East,90,6.0,6.0,80,0.00,,,0.00,VWS V14.01,2013-06-15 10:35:00,
2013-06-15 05:36:00,65.6,58.9,30.00,East,90,4.9,6.0,79,0.00,,,0.00,VWS V14.01,2013-06-15 10:36:00,
2013-06-15 05:37:00,65.6,58.9,30.00,East,90,4.9,4.9,79,0.00,,,0.00,VWS V14.01,2013-06-15 10:37:00,
2013-06-15 05:38:00,65.8,59.5,30.00,East,90,6.7,6.7,80,0.00,,,0.00,VWS V14.01,2013-06-15 10:38:00,
2013-06-15 05:39:00,65.8,59.5,30.00,East,90,6.7,6.7,80,0.00,,,0.00,VWS V14.01,2013-06-15 10:39:00,
2013-06-15 05:40:00,65.8,59.5,30.00,East,90,6.7,6.7,80,0.00,,,0.00,VWS V14.01,2013-06-15 10:40:00,
2013-06-15 05:41:00,65.8,59.5,30.00,East,90,7.3,7.3,80,0.00,,,0.00,VWS V14.01,2013-06-15 10:41:00,
2013-06-15 05:42:00,65.8,59.5,29.99,East,90,7.3,7.3,80,0.00,,,0.00,VWS V14.01,2013-06-15 10:42:00,
2013-06-15 05:43:00,65.6,59.3,29.99,ENE,68,6.0,7.3,80,0.00,,,0.00,VWS V14.01,2013-06-15 10:43:00,
2013-06-15 05:44:00,65.6,59.3,30.00,ENE,68,6.0,6.0,80,0.00,,,0.00,VWS V14.01,2013-06-15 10:44:00,
2013-06-15 05:45:00,65.6,59.3,30.00,ENE,68,6.0,6.0,80,0.00,,,0.00,VWS V14.01,2013-06-15 10:45:00,
2013-06-15 05:46:00,65.8,59.1,30.01,East,90,0.8,0.8,79,0.00,,,0.00,VWS V14.01,2013-06-15 10:46:00,
2013-06-15 05:47:00,65.8,59.5,30.01,SSE,158,1.7,1.7,80,0.00,,,0.00,VWS V14.01,2013-06-15 10:47:00,
2013-06-15 05:48:00,65.8,59.5,30.02,SSE,158,1.7,1.7,80,0.00,,,0.00,VWS V14.01,2013-06-15 10:48:00,
2013-06-15 05:49:00,66.0,59.7,30.03,SSW,202,1.3,1.7,80,0.00,,,0.00,VWS V14.01,2013-06-15 10:49:00,
2013-06-15 05:50:00,66.0,59.7,30.03,SSW,202,1.3,1.3,80,0.00,,,0.00,VWS V14.01,2013-06-15 10:50:00,
2013-06-15 05:51:00,65.8,59.5,30.03,SSW,202,3.8,3.8,80,0.00,,,0.00,VWS V14.01,2013-06-15 10:51:00,
2013-06-15 05:52:00,65.8,59.5,30.03,SSW,202,3.8,3.8,80,0.00,,,0.00,VWS V14.01,2013-06-15 10:52:00,
2013-06-15 05:53:00,65.8,59.5,30.03,SSW,202,3.8,3.8,80,0.00,,,0.00,VWS V14.01,2013-06-15 10:53:00,
2013-06-15 05:54:00,65.6,59.3,30.03,South,180,5.8,5.8,80,0.00,,,0.00,VWS V14.01,2013-06-15 10:54:00,
2013-06-15 05:55:00,65.6,59.3,30.03,South,180,5.8,5.8,80,0.00,,,0.00,VWS V14.01,2013-06-15 10:55:00,
2013-06-15 05:56:00,65.6,59.3,30.03,SSW,202,0.6,5.8,80,0.00,,,0.00,VWS V14.01,2013-06-15 10:56:00,
2013-06-15 05:57:00,65.6,59.3,30.03,SSW,202,0.6,0.6,80,0.00,,,0.00,VWS V14.01,2013-06-15 10:57:00,
2013-06-15 05:58:00,65.4,59.1,30.03,SSW,202,3.5,3.5,80,0.00,,,0.00,VWS V14.01,2013-06-15 10:58:00,
2013-06-15 05:59:00,65.4,59.1,30.03,SSW,202,3.5,3.5,80,0.00,,,0.00,VWS V14.01,2013-06-15 10:59:00,
2013-06-15 06:00:00,65.4,59.1,30.03,SSW,202,3.5,3.5,80,0.00,,,0.00,VWS V14.01,2013-06-15 11:00:00,
2013-06-15 06:01:00,65.4,59.1,30.04,South,180,3.3,3.3,80,0.00,,,0.00,VWS V14.01,2013-06-15 11:01:00,
2013-06-15 06:02:00,65.4,59.4,30.03,South,180,0.0,3.3,81,0.00,,,0.00,VWS V14.01,2013-06-15 11:02:00,
2013-06-15 06:03:00,65.4,59.4,30.03,South,180,0.0,0.0,81,0.00,,,0.00,VWS V14.01,2013-06-15 11:03:00,
2013-06-15 06:04:00,65.4,59.4,30.03,South,180,0.0,0.0,81,0.00,,,0.00,VWS V14.01,2013-06-15 11:04:00,
2013-06-15 06:05:00,65.4,59.4,30.03,South,180,0.0,0.0,81,0.00,,,0.00,VWS V14.01,2013-06-15 11:05:00,
2013-06-15 06:06:00,65.4,59.4,30.03,South,180,0.0,0.0,81,0.00,,,0.00,VWS V14.01,2013-06-15 11:06:00,
2013-06-15 06:07:00,65.4,59.4,30.03,South,180,0.0,0.0,81,0.00,,,0.00,VWS V14.01,2013-06-15 11:07:00,
2013-06-15 06:08:00,65.4,59.4,30.03,SSE,158,0.0,0.0,81,0.00,,,0.00,VWS V14.01,2013-06-15 11:08:00,
2013-06-15 06:09:00,65.3,59.3,30.03,SSE,158,0.0,0.0,81,0.00,,,0.00,VWS V14.01,2013-06-15 11:09:00,
2013-06-15 06:10:00,65.3,59.3,30.03,SSE,158,0.0,0.0,81,0.00,,,0.00,VWS V14.01,2013-06-15 11:10:00,
2013-06-15 06:11:00,65.3,59.3,30.03,SE,135,3.3,3.3,81,0.00,,,0.00,VWS V14.01,2013-06-15 11:11:00,
2013-06-15 06:12:00,65.3,59.3,30.03,SE,135,3.3,3.3,81,0.00,,,0.00,VWS V14.01,2013-06-15 11:12:00,
2013-06-15 06:13:00,65.4,59.4,30.03,SE,135,6.2,6.2,81,0.00,,,0.00,VWS V14.01,2013-06-15 11:13:00,
2013-06-15 06:14:00,65.4,59.4,30.03,SE,135,6.2,6.2,81,0.00,,,0.00,VWS V14.01,2013-06-15 11:14:00,
2013-06-15 06:15:00,65.4,59.4,30.03,SE,135,6.2,6.2,81,0.00,,,0.00,VWS V14.01,2013-06-15 11:15:00,
2013-06-15 06:16:00,65.4,59.4,30.03,SE,135,2.6,2.6,81,0.00,,,0.00,VWS V14.01,2013-06-15 11:16:00,
2013-06-15 06:17:00,65.4,59.1,30.03,ESE,112,5.5,5.5,80,0.00,,,0.00,VWS V14.01,2013-06-15 11:17:00,
2013-06-15 06:18:00,65.4,59.1,30.03,ESE,112,5.5,5.5,80,0.00,,,0.00,VWS V14.01,2013-06-15 11:18:00,
2013-06-15 06:19:00,65.6,59.3,30.03,SE,135,3.8,5.5,80,0.00,,,0.00,VWS V14.01,2013-06-15 11:19:00,
2013-06-15 06:20:00,65.6,59.3,30.03,SE,135,3.8,3.8,80,0.00,,,0.00,VWS V14.01,2013-06-15 11:20:00,
2013-06-15 06:21:00,65.6,59.3,30.03,SE,135,0.0,3.8,80,0.00,,,0.00,VWS V14.01,2013-06-15 11:21:00,
2013-06-15 06:22:00,65.6,59.3,30.03,SE,135,0.0,0.0,80,0.00,,,0.00,VWS V14.01,2013-06-15 11:22:00,
2013-06-15 06:23:00,65.6,59.3,30.03,SE,135,2.6,2.6,80,0.00,,,0.00,VWS V14.01,2013-06-15 11:23:00,
2013-06-15 06:24:00,65.6,59.3,30.03,SE,135,2.6,2.6,80,0.00,,,0.00,VWS V14.01,2013-06-15 11:24:00,
2013-06-15 06:25:00,65.6,59.3,30.03,SE,135,2.6,2.6,80,0.00,,,0.00,VWS V14.01,2013-06-15 11:25:00,
2013-06-15 06:26:00,65.4,59.4,30.03,SE,135,0.0,2.6,81,0.00,,,0.00,VWS V14.01,2013-06-15 11:26:00,
2013-06-15 06:27:00,65.4,59.4,30.03,SE,135,0.0,0.0,81,0.00,,,0.00,VWS V14.01,2013-06-15 11:27:00,
2013-06-15 06:28:00,65.4,59.4,30.03,SE,135,6.9,6.9,81,0.00,,,0.00,VWS V14.01,2013-06-15 11:28:00,
2013-06-15 06:29:00,65.4,59.4,30.03,SE,135,6.9,6.9,81,0.00,,,0.00,VWS V14.01,2013-06-15 11:29:00,
2013-06-15 06:30:00,65.4,59.4,30.03,SE,135,6.9,6.9,81,0.00,,,0.00,VWS V14.01,2013-06-15 11:30:00,
2013-06-15 06:31:00,65.6,59.6,30.03,SE,135,1.7,1.7,81,0.00,,,0.00,VWS V14.01,2013-06-15 11:31:00,
2013-06-15 06:32:00,65.4,59.4,30.03,ESE,112,0.0,1.7,81,0.00,,,0.00,VWS V14.01,2013-06-15 11:32:00,
2013-06-15 06:33:00,65.4,59.4,30.03,ESE,112,0.0,0.0,81,0.00,,,0.00,VWS V14.01,2013-06-15 11:33:00,
2013-06-15 06:34:00,65.3,59.3,30.04,ESE,112,0.0,0.0,81,0.00,,,0.00,VWS V14.01,2013-06-15 11:34:00,
2013-06-15 06:35:00,65.3,59.3,30.04,ESE,112,0.0,0.0,81,0.00,,,0.00,VWS V14.01,2013-06-15 11:35:00,
2013-06-15 06:36:00,65.3,59.3,30.04,ESE,112,0.0,0.0,81,0.00,,,0.00,VWS V14.01,2013-06-15 11:36:00,
2013-06-15 06:37:00,65.3,59.3,30.04,ESE,112,0.0,0.0,81,0.00,,,0.00,VWS V14.01,2013-06-15 11:37:00,
2013-06-15 06:38:00,65.3,59.3,30.04,ESE,112,0.0,0.0,81,0.00,,,0.00,VWS V14.01,2013-06-15 11:38:00,
2013-06-15 06:39:00,65.3,59.3,30.04,ESE,112,0.0,0.0,81,0.00,,,0.00,VWS V14.01,2013-06-15 11:39:00,
2013-06-15 06:40:00,65.3,59.3,30.04,ESE,112,0.0,0.0,81,0.00,,,0.00,VWS V14.01,2013-06-15 11:40:00,
2013-06-15 06:41:00,65.3,59.3,30.05,ESE,112,0.0,0.0,81,0.00,,,0.00,VWS V14.01,2013-06-15 11:41:00,
2013-06-15 06:42:00,65.3,59.3,30.05,ESE,112,0.0,0.0,81,0.00,,,0.00,VWS V14.01,2013-06-15 11:42:00,
2013-06-15 06:43:00,65.3,59.3,30.05,ESE,112,0.0,0.0,81,0.00,,,0.00,VWS V14.01,2013-06-15 11:43:00,
2013-06-15 06:44:00,65.3,59.3,30.05,ESE,112,0.0,0.0,81,0.00,,,0.00,VWS V14.01,2013-06-15 11:44:00,
2013-06-15 06:45:00,65.3,59.3,30.05,ESE,112,0.0,0.0,81,0.00,,,0.00,VWS V14.01,2013-06-15 11:45:00,
2013-06-15 06:46:00,65.1,59.1,30.05,NE,45,0.0,0.0,81,0.00,,,0.00,VWS V14.01,2013-06-15 11:46:00,
2013-06-15 06:47:00,65.3,59.3,30.05,NNE,22,0.0,0.0,81,0.00,,,0.00,VWS V14.01,2013-06-15 11:47:00,
2013-06-15 06:48:00,65.3,59.3,30.05,NNE,22,0.0,0.0,81,0.00,,,0.00,VWS V14.01,2013-06-15 11:48:00,
2013-06-15 06:49:00,65.3,59.3,30.05,NNE,22,0.0,0.0,81,0.00,,,0.00,VWS V14.01,2013-06-15 11:49:00,
2013-06-15 06:50:00,65.3,59.3,30.05,NNE,22,0.0,0.0,81,0.00,,,0.00,VWS V14.01,2013-06-15 11:50:00,
2013-06-15 06:51:00,65.3,59.3,30.05,NNE,22,0.0,0.0,81,0.00,,,0.00,VWS V14.01,2013-06-15 11:51:00,
2013-06-15 06:52:00,65.3,59.3,30.05,NNE,22,0.0,0.0,81,0.00,,,0.00,VWS V14.01,2013-06-15 11:52:00,
2013-06-15 06:53:00,65.3,59.3,30.05,NNE,22,0.0,0.0,81,0.00,,,0.00,VWS V14.01,2013-06-15 11:53:00,
2013-06-15 06:54:00,65.4,59.4,30.05,NNE,22,0.0,0.0,81,0.00,,,0.00,VWS V14.01,2013-06-15 11:54:00,
2013-06-15 06:55:00,65.4,59.4,30.05,NNE,22,0.0,0.0,81,0.00,,,0.00,VWS V14.01,2013-06-15 11:55:00,
2013-06-15 06:56:00,65.3,59.3,30.05,NNE,22,0.0,0.0,81,0.00,,,0.00,VWS V14.01,2013-06-15 11:56:00,
2013-06-15 06:57:00,65.3,59.3,30.05,NNE,22,0.0,0.0,81,0.00,,,0.00,VWS V14.01,2013-06-15 11:57:00,
2013-06-15 06:58:00,65.3,59.7,30.05,NNE,22,0.0,0.0,82,0.00,,,0.00,VWS V14.01,2013-06-15 11:58:00,
2013-06-15 06:59:00,65.3,59.7,30.05,NNE,22,0.0,0.0,82,0.00,,,0.00,VWS V14.01,2013-06-15 11:59:00,
2013-06-15 07:00:00,65.3,59.7,30.05,NNE,22,0.0,0.0,82,0.00,,,0.00,VWS V14.01,2013-06-15 12:00:00,
2013-06-15 07:01:00,65.3,59.7,30.04,ENE,68,0.6,0.6,82,0.00,,,0.00,VWS V14.01,2013-06-15 12:01:00,
2013-06-15 07:02:00,65.3,59.7,30.04,ENE,68,0.0,0.6,82,0.00,,,0.00,VWS V14.01,2013-06-15 12:02:00,
2013-06-15 07:03:00,65.3,59.7,30.04,ENE,68,0.0,0.0,82,0.00,,,0.00,VWS V14.01,2013-06-15 12:03:00,
2013-06-15 07:04:00,65.3,59.7,30.04,ENE,68,0.0,0.0,82,0.00,,,0.00,VWS V14.01,2013-06-15 12:04:00,
2013-06-15 07:05:00,65.3,59.7,30.04,ENE,68,0.0,0.0,82,0.00,,,0.00,VWS V14.01,2013-06-15 12:05:00,
2013-06-15 07:06:00,65.4,59.8,30.05,ENE,68,0.0,0.0,82,0.00,,,0.00,VWS V14.01,2013-06-15 12:06:00,
2013-06-15 07:07:00,65.4,59.8,30.05,ENE,68,0.0,0.0,82,0.00,,,0.00,VWS V14.01,2013-06-15 12:07:00,
2013-06-15 07:08:00,65.4,59.8,30.05,ENE,68,0.0,0.0,82,0.00,,,0.00,VWS V14.01,2013-06-15 12:08:00,
2013-06-15 07:09:00,65.4,59.8,30.05,ENE,68,0.0,0.0,82,0.00,,,0.00,VWS V14.01,2013-06-15 12:09:00,
2013-06-15 07:10:00,65.4,59.8,30.05,ENE,68,0.0,0.0,82,0.00,,,0.00,VWS V14.01,2013-06-15 12:10:00,
2013-06-15 07:11:00,65.4,59.8,30.05,ENE,68,0.0,0.0,82,0.00,,,0.00,VWS V14.01,2013-06-15 12:11:00,
2013-06-15 07:12:00,65.4,59.8,30.05,ENE,68,0.0,0.0,82,0.00,,,0.00,VWS V14.01,2013-06-15 12:12:00,
2013-06-15 07:13:00,65.4,59.8,30.05,ENE,68,0.0,0.0,82,0.00,,,0.00,VWS V14.01,2013-06-15 12:13:00,
2013-06-15 07:14:00,65.4,59.8,30.05,ENE,68,0.0,0.0,82,0.00,,,0.00,VWS V14.01,2013-06-15 12:14:00,
2013-06-15 07:15:00,65.4,59.8,30.05,ENE,68,0.0,0.0,82,0.00,,,0.00,VWS V14.01,2013-06-15 12:15:00,
2013-06-15 07:16:00,65.4,59.8,30.05,ENE,68,0.0,0.0,82,0.00,,,0.00,VWS V14.01,2013-06-15 12:16:00,
2013-06-15 07:17:00,65.4,59.8,30.05,ENE,68,0.0,0.0,82,0.00,,,0.00,VWS V14.01,2013-06-15 12:17:00,
2013-06-15 07:18:00,65.4,59.8,30.05,ENE,68,0.0,0.0,82,0.00,,,0.00,VWS V14.01,2013-06-15 12:18:00,
2013-06-15 07:19:00,65.4,59.8,30.05,ENE,68,0.0,0.0,82,0.00,,,0.00,VWS V14.01,2013-06-15 12:19:00,
2013-06-15 07:20:00,65.4,59.8,30.05,ENE,68,0.0,0.0,82,0.00,,,0.00,VWS V14.01,2013-06-15 12:20:00,
2013-06-15 07:21:00,65.4,59.8,30.05,ENE,68,0.0,0.0,82,0.00,,,0.00,VWS V14.01,2013-06-15 12:21:00,
2013-06-15 07:22:00,65.4,59.8,30.05,ENE,68,0.0,0.0,82,0.00,,,0.00,VWS V14.01,2013-06-15 12:22:00,
2013-06-15 07:24:00,65.4,59.8,30.05,ENE,68,0.0,0.0,82,0.00,,,0.00,VWS V14.01,2013-06-15 12:24:00,
2013-06-15 07:25:00,65.4,59.8,30.05,ESE,112,0.0,0.0,82,0.00,,,0.00,VWS V14.01,2013-06-15 12:25:00,
2013-06-15 07:26:00,65.4,59.8,30.04,ESE,112,0.0,0.0,82,0.00,,,0.00,VWS V14.01,2013-06-15 12:26:00,
2013-06-15 07:27:00,65.4,59.8,30.04,ESE,112,0.0,0.0,82,0.00,,,0.00,VWS V14.01,2013-06-15 12:27:00,
2013-06-15 07:28:00,65.4,59.8,30.05,ESE,112,0.0,0.0,82,0.00,,,0.00,VWS V14.01,2013-06-15 12:28:00,
2013-06-15 07:30:00,65.4,59.8,30.04,ESE,112,0.0,0.0,82,0.00,,,0.00,VWS V14.01,2013-06-15 12:30:00,
2013-06-15 07:31:00,65.4,59.8,30.04,ESE,112,2.2,2.2,82,0.00,,,0.00,VWS V14.01,2013-06-15 12:31:00,
2013-06-15 07:32:00,65.4,59.8,30.04,ESE,112,2.2,2.2,82,0.00,,,0.00,VWS V14.01,2013-06-15 12:32:00,
2013-06-15 07:33:00,65.4,59.8,30.04,ESE,112,0.0,2.2,82,0.00,,,0.00,VWS V14.01,2013-06-15 12:33:00,
2013-06-15 07:35:00,65.3,59.7,30.04,East,90,0.0,0.0,82,0.00,,,0.00,VWS V14.01,2013-06-15 12:35:00,
2013-06-15 07:36:00,65.3,59.7,30.05,East,90,0.0,0.0,82,0.00,,,0.00,VWS V14.01,2013-06-15 12:36:00,
2013-06-15 07:37:00,65.3,59.7,30.05,ESE,112,0.0,0.0,82,0.00,,,0.00,VWS V14.01,2013-06-15 12:37:00,
2013-06-15 07:38:00,65.3,59.7,30.05,ESE,112,0.0,0.0,82,0.00,,,0.00,VWS V14.01,2013-06-15 12:38:00,
2013-06-15 07:39:00,65.3,59.7,30.05,ESE,112,0.0,0.0,82,0.00,,,0.00,VWS V14.01,2013-06-15 12:39:00,
2013-06-15 07:40:00,65.3,59.7,30.05,ESE,112,0.0,0.0,82,0.00,,,0.00,VWS V14.01,2013-06-15 12:40:00,
2013-06-15 07:41:00,65.3,59.7,30.05,ESE,112,0.0,0.0,82,0.00,,,0.00,VWS V14.01,2013-06-15 12:41:00,
2013-06-15 07:42:00,65.3,59.7,30.05,ESE,112,0.0,0.0,82,0.00,,,0.00,VWS V14.01,2013-06-15 12:42:00,
2013-06-15 07:43:00,65.3,59.7,30.05,ESE,112,0.0,0.0,82,0.00,,,0.00,VWS V14.01,2013-06-15 12:43:00,
2013-06-15 07:44:00,65.3,59.7,30.05,SE,135,0.0,0.0,82,0.00,,,0.00,VWS V14.01,2013-06-15 12:44:00,
2013-06-15 07:45:00,65.3,59.7,30.05,SE,135,0.0,0.0,82,0.00,,,0.00,VWS V14.01,2013-06-15 12:45:00,
2013-06-15 07:46:00,65.3,59.7,30.05,SE,135,0.0,0.0,82,0.00,,,0.00,VWS V14.01,2013-06-15 12:46:00,
2013-06-15 07:47:00,65.3,59.7,30.05,SE,135,0.0,0.0,82,0.00,,,0.00,VWS V14.01,2013-06-15 12:47:00,
2013-06-15 07:48:00,65.4,59.8,30.05,SE,135,0.0,0.0,82,0.00,,,0.00,VWS V14.01,2013-06-15 12:48:00,
2013-06-15 07:49:00,65.4,59.8,30.05,SE,135,0.0,0.0,82,0.00,,,0.00,VWS V14.01,2013-06-15 12:49:00,
2013-06-15 07:50:00,65.3,59.7,30.05,SE,135,0.0,0.0,82,0.00,,,0.00,VWS V14.01,2013-06-15 12:50:00,
2013-06-15 07:51:00,65.3,59.7,30.05,SE,135,0.0,0.0,82,0.00,,,0.00,VWS V14.01,2013-06-15 12:51:00,
2013-06-15 07:52:00,65.1,59.5,30.05,SE,135,0.0,0.0,82,0.00,,,0.00,VWS V14.01,2013-06-15 12:52:00,
2013-06-15 07:53:00,65.1,59.5,30.05,SE,135,0.0,0.0,82,0.00,,,0.00,VWS V14.01,2013-06-15 12:53:00,
2013-06-15 07:54:00,65.1,59.5,30.06,SE,135,0.0,0.0,82,0.00,,,0.00,VWS V14.01,2013-06-15 12:54:00,
2013-06-15 07:55:00,65.1,59.5,30.06,SE,135,0.0,0.0,82,0.00,,,0.00,VWS V14.01,2013-06-15 12:55:00,
2013-06-15 07:56:00,65.1,59.5,30.06,SE,135,0.0,0.0,82,0.00,,,0.00,VWS V14.01,2013-06-15 12:56:00,
2013-06-15 07:57:00,65.3,60.0,30.06,SE,135,0.0,0.0,83,0.00,,,0.00,VWS V14.01,2013-06-15 12:57:00,
2013-06-15 07:58:00,65.3,60.0,30.06,SE,135,0.0,0.0,83,0.00,,,0.00,VWS V14.01,2013-06-15 12:58:00,
2013-06-15 07:59:00,65.3,60.0,30.06,SE,135,0.0,0.0,83,0.00,,,0.00,VWS V14.01,2013-06-15 12:59:00,
2013-06-15 08:00:00,65.3,60.0,30.06,SE,135,0.0,0.0,83,0.00,,,0.00,VWS V14.01,2013-06-15 13:00:00,
2013-06-15 08:01:00,65.1,59.8,30.06,SE,135,0.0,0.0,83,0.00,,,0.00,VWS V14.01,2013-06-15 13:01:00,
2013-06-15 08:02:00,65.1,59.8,30.05,SE,135,0.0,0.0,83,0.00,,,0.00,VWS V14.01,2013-06-15 13:02:00,
2013-06-15 08:03:00,65.1,59.8,30.06,SE,135,0.0,0.0,83,0.00,,,0.00,VWS V14.01,2013-06-15 13:03:00,
2013-06-15 08:04:00,65.1,59.8,30.06,SE,135,0.0,0.0,83,0.00,,,0.00,VWS V14.01,2013-06-15 13:04:00,
2013-06-15 08:05:00,64.9,59.6,30.06,ESE,112,0.0,0.0,83,0.00,,,0.00,VWS V14.01,2013-06-15 13:05:00,
2013-06-15 08:06:00,64.9,59.6,30.06,ESE,112,0.0,0.0,83,0.00,,,0.00,VWS V14.01,2013-06-15 13:06:00,
2013-06-15 08:07:00,64.9,59.6,30.06,ESE,112,0.0,0.0,83,0.00,,,0.00,VWS V14.01,2013-06-15 13:07:00,
2013-06-15 08:08:00,64.9,59.6,30.06,ESE,112,0.0,0.0,83,0.00,,,0.00,VWS V14.01,2013-06-15 13:08:00,
2013-06-15 08:09:00,64.9,59.6,30.06,East,90,0.0,0.0,83,0.00,,,0.00,VWS V14.01,2013-06-15 13:09:00,
2013-06-15 08:10:00,64.9,59.6,30.06,East,90,0.0,0.0,83,0.00,,,0.00,VWS V14.01,2013-06-15 13:10:00,
2013-06-15 08:11:00,64.9,60.0,30.06,East,90,0.0,0.0,84,0.00,,,0.00,VWS V14.01,2013-06-15 13:11:00,
2013-06-15 08:12:00,64.7,59.8,30.06,East,90,0.0,0.0,84,0.00,,,0.00,VWS V14.01,2013-06-15 13:12:00,
2013-06-15 08:13:00,64.7,59.8,30.05,East,90,0.0,0.0,84,0.00,,,0.00,VWS V14.01,2013-06-15 13:13:00,
2013-06-15 08:14:00,64.7,59.8,30.05,East,90,0.0,0.0,84,0.00,,,0.00,VWS V14.01,2013-06-15 13:14:00,
2013-06-15 08:15:00,64.7,59.8,30.05,East,90,0.0,0.0,84,0.00,,,0.00,VWS V14.01,2013-06-15 13:15:00,
2013-06-15 08:16:00,64.7,59.8,30.05,ESE,112,0.0,0.0,84,0.00,,,0.00,VWS V14.01,2013-06-15 13:16:00,
2013-06-15 08:17:00,64.7,59.8,30.05,ESE,112,0.0,0.0,84,0.00,,,0.00,VWS V14.01,2013-06-15 13:17:00,
2013-06-15 08:18:00,64.7,59.8,30.05,ESE,112,0.0,0.0,84,0.00,,,0.00,VWS V14.01,2013-06-15 13:18:00,
2013-06-15 08:19:00,64.7,59.8,30.05,ESE,112,0.0,0.0,84,0.00,,,0.00,VWS V14.01,2013-06-15 13:19:00,
2013-06-15 08:20:00,64.7,59.8,30.05,ESE,112,0.0,0.0,84,0.00,,,0.00,VWS V14.01,2013-06-15 13:20:00,
2013-06-15 08:21:00,64.7,59.8,30.05,ESE,112,0.0,0.0,84,0.00,,,0.00,VWS V14.01,2013-06-15 13:21:00,
2013-06-15 08:22:00,64.9,60.0,30.05,East,90,0.0,0.0,84,0.00,,,0.00,VWS V14.01,2013-06-15 13:22:00,
2013-06-15 08:23:00,64.9,60.0,30.05,East,90,0.0,0.0,84,0.00,,,0.00,VWS V14.01,2013-06-15 13:23:00,
2013-06-15 08:24:00,64.9,60.0,30.06,SE,135,0.0,0.0,84,0.00,,,0.00,VWS V14.01,2013-06-15 13:24:00,
2013-06-15 08:25:00,64.9,60.0,30.06,SE,135,0.0,0.0,84,0.00,,,0.00,VWS V14.01,2013-06-15 13:25:00,
2013-06-15 08:26:00,64.9,60.0,30.06,ESE,112,0.0,0.0,84,0.00,,,0.00,VWS V14.01,2013-06-15 13:26:00,
2013-06-15 08:27:00,65.1,60.2,30.06,ESE,112,0.0,0.0,84,0.00,,,0.00,VWS V14.01,2013-06-15 13:27:00,
2013-06-15 08:28:00,65.1,60.2,30.06,ESE,112,0.0,0.0,84,0.00,,,0.00,VWS V14.01,2013-06-15 13:28:00,
2013-06-15 08:29:00,65.3,60.3,30.06,ESE,112,0.0,0.0,84,0.00,,,0.00,VWS V14.01,2013-06-15 13:29:00,
2013-06-15 08:30:00,65.3,60.3,30.06,ESE,112,0.0,0.0,84,0.00,,,0.00,VWS V14.01,2013-06-15 13:30:00,
2013-06-15 08:31:00,65.4,60.5,30.06,SE,135,0.0,0.0,84,0.00,,,0.00,VWS V14.01,2013-06-15 13:31:00,
2013-06-15 08:32:00,65.4,60.5,30.06,SE,135,0.0,0.0,84,0.00,,,0.00,VWS V14.01,2013-06-15 13:32:00,
2013-06-15 08:33:00,65.6,60.6,30.06,SE,135,0.8,0.8,84,0.00,,,0.00,VWS V14.01,2013-06-15 13:33:00,
2013-06-15 08:34:00,65.6,60.6,30.06,SE,135,0.8,0.8,84,0.00,,,0.00,VWS V14.01,2013-06-15 13:34:00,
2013-06-15 08:35:00,65.6,60.6,30.06,SE,135,0.8,0.8,84,0.00,,,0.00,VWS V14.01,2013-06-15 13:35:00,
2013-06-15 08:36:00,65.8,60.8,30.06,SSE,158,0.4,0.4,84,0.00,,,0.00,VWS V14.01,2013-06-15 13:36:00,
2013-06-15 08:37:00,66.0,61.0,30.06,SE,135,3.3,3.3,84,0.00,,,0.00,VWS V14.01,2013-06-15 13:37:00,
2013-06-15 08:38:00,66.0,61.0,30.06,SE,135,3.3,3.3,84,0.00,,,0.00,VWS V14.01,2013-06-15 13:38:00,
2013-06-15 08:39:00,66.0,61.0,30.06,SSE,158,7.6,7.6,84,0.00,,,0.00,VWS V14.01,2013-06-15 13:39:00,
2013-06-15 08:40:00,66.0,61.0,30.06,SSE,158,7.6,7.6,84,0.00,,,0.00,VWS V14.01,2013-06-15 13:40:00,
2013-06-15 08:41:00,66.0,61.0,30.06,SSE,158,7.6,7.6,84,0.00,,,0.00,VWS V14.01,2013-06-15 13:41:00,
2013-06-15 08:42:00,66.0,61.0,30.05,ESE,112,3.3,7.6,84,0.00,,,0.00,VWS V14.01,2013-06-15 13:42:00,
2013-06-15 08:43:00,66.0,61.0,30.06,ESE,112,3.3,3.3,84,0.00,,,0.00,VWS V14.01,2013-06-15 13:43:00,
2013-06-15 08:44:00,66.0,61.0,30.06,ESE,112,0.6,3.3,84,0.00,,,0.00,VWS V14.01,2013-06-15 13:44:00,
2013-06-15 08:45:00,66.0,61.0,30.06,ESE,112,0.6,0.6,84,0.00,,,0.00,VWS V14.01,2013-06-15 13:45:00,
2013-06-15 08:46:00,66.3,61.3,30.07,ESE,112,0.0,0.6,84,0.00,,,0.00,VWS V14.01,2013-06-15 13:46:00,
2013-06-15 08:47:00,66.3,61.3,30.07,ESE,112,0.0,0.0,84,0.00,,,0.00,VWS V14.01,2013-06-15 13:47:00,
2013-06-15 08:48:00,66.3,61.3,30.07,ESE,112,0.2,0.2,84,0.00,,,0.00,VWS V14.01,2013-06-15 13:48:00,
2013-06-15 08:49:00,66.3,61.3,30.07,ESE,112,0.2,0.2,84,0.00,,,0.00,VWS V14.01,2013-06-15 13:49:00,
2013-06-15 08:50:00,66.3,61.3,30.07,ESE,112,0.2,0.2,84,0.00,,,0.00,VWS V14.01,2013-06-15 13:50:00,
2013-06-15 08:51:00,66.5,61.5,30.07,ESE,112,5.3,5.3,84,0.00,,,0.00,VWS V14.01,2013-06-15 13:51:00,
2013-06-15 08:52:00,66.5,61.5,30.07,ESE,112,1.5,5.3,84,0.00,,,0.00,VWS V14.01,2013-06-15 13:52:00,
2013-06-15 08:53:00,66.5,61.5,30.07,ESE,112,1.5,1.5,84,0.00,,,0.00,VWS V14.01,2013-06-15 13:53:00,
2013-06-15 08:54:00,66.7,61.7,30.07,ESE,112,1.1,1.5,84,0.00,,,0.00,VWS V14.01,2013-06-15 13:54:00,
2013-06-15 08:55:00,66.7,61.7,30.07,ESE,112,1.1,1.1,84,0.00,,,0.00,VWS V14.01,2013-06-15 13:55:00,
2013-06-15 08:56:00,66.7,61.7,30.07,ESE,112,1.1,1.1,84,0.00,,,0.00,VWS V14.01,2013-06-15 13:56:00,
2013-06-15 08:57:00,66.7,61.7,30.07,ESE,112,4.4,4.4,84,0.00,,,0.00,VWS V14.01,2013-06-15 13:57:00,
2013-06-15 08:58:00,66.7,61.7,30.07,ESE,112,4.4,4.4,84,0.00,,,0.00,VWS V14.01,2013-06-15 13:58:00,
2013-06-15 08:59:00,66.7,61.7,30.07,ESE,112,3.1,4.4,84,0.00,,,0.00,VWS V14.01,2013-06-15 13:59:00,
2013-06-15 09:00:00,66.7,61.7,30.07,ESE,112,3.1,3.1,84,0.00,,,0.00,VWS V14.01,2013-06-15 14:00:00,
2013-06-15 09:01:00,66.9,61.9,30.07,ESE,112,1.5,3.1,84,0.00,,,0.00,VWS V14.01,2013-06-15 14:01:00,
2013-06-15 09:02:00,66.9,61.9,30.07,ESE,112,1.5,1.5,84,0.00,,,0.00,VWS V14.01,2013-06-15 14:02:00,
2013-06-15 09:03:00,66.9,61.9,30.07,ESE,112,2.4,2.4,84,0.00,,,0.00,VWS V14.01,2013-06-15 14:03:00,
2013-06-15 09:04:00,66.9,61.9,30.06,ESE,112,2.4,2.4,84,0.00,,,0.00,VWS V14.01,2013-06-15 14:04:00,
2013-06-15 09:05:00,66.9,61.9,30.06,ESE,112,2.4,2.4,84,0.00,,,0.00,VWS V14.01,2013-06-15 14:05:00,
2013-06-15 09:06:00,66.9,61.9,30.06,ESE,112,0.0,0.0,84,0.00,,,0.00,VWS V14.01,2013-06-15 14:06:00,
2013-06-15 09:07:00,67.1,61.8,30.06,ESE,112,3.8,3.8,83,0.00,,,0.00,VWS V14.01,2013-06-15 14:07:00,
2013-06-15 09:08:00,67.1,61.8,30.06,ESE,112,3.8,3.8,83,0.00,,,0.00,VWS V14.01,2013-06-15 14:08:00,
2013-06-15 09:09:00,67.2,61.9,30.06,ESE,112,1.1,3.8,83,0.00,,,0.00,VWS V14.01,2013-06-15 14:09:00,
2013-06-15 09:10:00,67.2,61.9,30.06,ESE,112,1.1,1.1,83,0.00,,,0.00,VWS V14.01,2013-06-15 14:10:00,
2013-06-15 09:11:00,67.2,61.9,30.06,ESE,112,1.1,1.1,83,0.00,,,0.00,VWS V14.01,2013-06-15 14:11:00,
2013-06-15 09:12:00,67.2,61.9,30.06,ESE,112,6.9,6.9,83,0.00,,,0.00,VWS V14.01,2013-06-15 14:12:00,
2013-06-15 09:13:00,67.2,61.9,30.06,ESE,112,6.9,6.9,83,0.00,,,0.00,VWS V14.01,2013-06-15 14:13:00,
2013-06-15 09:14:00,67.4,62.1,30.05,ESE,112,0.0,6.9,83,0.00,,,0.00,VWS V14.01,2013-06-15 14:14:00,
2013-06-15 09:15:00,67.4,62.1,30.05,ESE,112,0.0,0.0,83,0.00,,,0.00,VWS V14.01,2013-06-15 14:15:00,
2013-06-15 09:16:00,67.4,62.1,30.05,ESE,112,4.0,4.0,83,0.00,,,0.00,VWS V14.01,2013-06-15 14:16:00,
2013-06-15 09:17:00,67.4,62.1,30.05,ESE,112,4.0,4.0,83,0.00,,,0.00,VWS V14.01,2013-06-15 14:17:00,
2013-06-15 09:18:00,67.6,62.3,30.05,SE,135,5.5,5.5,83,0.00,,,0.00,VWS V14.01,2013-06-15 14:18:00,
2013-06-15 09:19:00,67.6,62.3,30.05,SE,135,5.5,5.5,83,0.00,,,0.00,VWS V14.01,2013-06-15 14:19:00,
2013-06-15 09:20:00,67.6,62.3,30.05,SE,135,5.5,5.5,83,0.00,,,0.00,VWS V14.01,2013-06-15 14:20:00,
2013-06-15 09:21:00,67.6,62.3,30.05,SE,135,4.0,4.0,83,0.00,,,0.00,VWS V14.01,2013-06-15 14:21:00,
2013-06-15 09:22:00,67.4,62.1,30.05,ESE,112,0.6,4.0,83,0.00,,,0.00,VWS V14.01,2013-06-15 14:22:00,
2013-06-15 09:23:00,67.4,62.1,30.05,ESE,112,0.6,0.6,83,0.00,,,0.00,VWS V14.01,2013-06-15 14:23:00,
2013-06-15 09:24:00,67.2,61.9,30.04,SSE,158,8.2,8.2,83,0.00,,,0.00,VWS V14.01,2013-06-15 14:24:00,
2013-06-15 09:25:00,67.2,61.9,30.04,SSE,158,8.2,8.2,83,0.00,,,0.00,VWS V14.01,2013-06-15 14:25:00,
2013-06-15 09:26:00,67.2,61.9,30.05,SE,135,6.9,8.2,83,0.00,,,0.00,VWS V14.01,2013-06-15 14:26:00,
2013-06-15 09:27:00,67.2,61.9,30.05,SE,135,6.9,6.9,83,0.00,,,0.00,VWS V14.01,2013-06-15 14:27:00,
2013-06-15 09:28:00,67.2,61.9,30.05,SE,135,6.9,6.9,83,0.00,,,0.00,VWS V14.01,2013-06-15 14:28:00,
2013-06-15 09:29:00,67.6,62.3,30.05,ESE,112,0.0,6.9,83,0.00,,,0.00,VWS V14.01,2013-06-15 14:29:00,
2013-06-15 09:30:00,67.6,62.3,30.05,ESE,112,0.0,0.0,83,0.00,,,0.00,VWS V14.01,2013-06-15 14:30:00,
2013-06-15 09:31:00,67.8,62.5,30.05,SE,135,4.6,4.6,83,0.00,,,0.00,VWS V14.01,2013-06-15 14:31:00,
2013-06-15 09:32:00,67.8,62.5,30.05,SE,135,4.6,4.6,83,0.00,,,0.00,VWS V14.01,2013-06-15 14:32:00,
2013-06-15 09:33:00,67.8,62.5,30.05,SE,135,5.8,5.8,83,0.00,,,0.00,VWS V14.01,2013-06-15 14:33:00,
2013-06-15 09:34:00,67.8,62.5,30.05,SE,135,5.8,5.8,83,0.00,,,0.00,VWS V14.01,2013-06-15 14:34:00,
2013-06-15 09:35:00,67.8,62.5,30.05,SE,135,5.8,5.8,83,0.00,,,0.00,VWS V14.01,2013-06-15 14:35:00,
2013-06-15 09:36:00,68.1,62.4,30.05,SSE,158,3.1,3.1,82,0.00,,,0.00,VWS V14.01,2013-06-15 14:36:00,
2013-06-15 09:37:00,68.9,63.2,30.05,SSE,158,0.0,3.1,82,0.00,,,0.00,VWS V14.01,2013-06-15 14:37:00,
2013-06-15 09:38:00,68.9,63.2,30.04,SSE,158,0.0,0.0,82,0.00,,,0.00,VWS V14.01,2013-06-15 14:38:00,
2013-06-15 09:39:00,68.9,63.2,30.04,SE,135,3.3,3.3,82,0.00,,,0.00,VWS V14.01,2013-06-15 14:39:00,
2013-06-15 09:40:00,68.9,63.2,30.04,SE,135,3.3,3.3,82,0.00,,,0.00,VWS V14.01,2013-06-15 14:40:00,
2013-06-15 09:41:00,69.6,63.9,30.05,ESE,112,2.4,3.3,82,0.00,,,0.00,VWS V14.01,2013-06-15 14:41:00,
2013-06-15 09:42:00,70.3,64.2,30.05,ESE,112,2.4,2.4,81,0.00,,,0.00,VWS V14.01,2013-06-15 14:42:00,
2013-06-15 09:43:00,70.3,64.2,30.05,ESE,112,2.4,2.4,81,0.00,,,0.00,VWS V14.01,2013-06-15 14:43:00,
2013-06-15 09:44:00,71.2,64.4,30.05,SE,135,7.3,7.3,79,0.00,,,0.00,VWS V14.01,2013-06-15 14:44:00,
2013-06-15 09:45:00,71.2,64.4,30.05,SE,135,7.3,7.3,79,0.00,,,0.00,VWS V14.01,2013-06-15 14:45:00,
2013-06-15 09:46:00,71.2,64.4,30.05,SE,135,2.4,7.3,79,0.00,,,0.00,VWS V14.01,2013-06-15 14:46:00,
2013-06-15 09:47:00,71.2,64.4,30.05,SE,135,2.4,2.4,79,0.00,,,0.00,VWS V14.01,2013-06-15 14:47:00,
2013-06-15 09:48:00,71.7,64.5,30.05,SSE,158,2.0,2.4,78,0.00,,,0.00,VWS V14.01,2013-06-15 14:48:00,
2013-06-15 09:49:00,71.7,64.5,30.05,SSE,158,2.0,2.0,78,0.00,,,0.00,VWS V14.01,2013-06-15 14:49:00,
2013-06-15 09:50:00,71.7,64.5,30.05,SSE,158,2.0,2.0,78,0.00,,,0.00,VWS V14.01,2013-06-15 14:50:00,
2013-06-15 09:51:00,72.6,65.3,30.05,SSE,158,3.3,3.3,78,0.00,,,0.00,VWS V14.01,2013-06-15 14:51:00,
2013-06-15 09:52:00,72.6,65.0,30.05,SE,135,6.9,6.9,77,0.00,,,0.00,VWS V14.01,2013-06-15 14:52:00,
2013-06-15 09:53:00,72.6,65.0,30.05,SE,135,6.9,6.9,77,0.00,,,0.00,VWS V14.01,2013-06-15 14:53:00,
2013-06-15 09:54:00,73.0,65.4,30.05,ESE,112,0.0,6.9,77,0.00,,,0.00,VWS V14.01,2013-06-15 14:54:00,
2013-06-15 09:55:00,73.0,65.4,30.05,ESE,112,0.0,0.0,77,0.00,,,0.00,VWS V14.01,2013-06-15 14:55:00,
2013-06-15 09:56:00,73.0,65.4,30.05,SSE,158,0.0,0.0,77,0.00,,,0.00,VWS V14.01,2013-06-15 14:56:00,
2013-06-15 09:57:00,73.2,65.2,30.05,SSE,158,0.0,0.0,76,0.00,,,0.00,VWS V14.01,2013-06-15 14:57:00,
2013-06-15 09:58:00,73.2,65.2,30.05,SSE,158,0.0,0.0,76,0.00,,,0.00,VWS V14.01,2013-06-15 14:58:00,
2013-06-15 09:59:00,73.2,65.2,30.05,South,180,0.0,0.0,76,0.00,,,0.00,VWS V14.01,2013-06-15 14:59:00,
2013-06-15 10:00:00,73.2,65.2,30.05,South,180,0.0,0.0,76,0.00,,,0.00,VWS V14.01,2013-06-15 15:00:00,
2013-06-15 10:01:00,74.1,65.7,30.05,ESE,112,6.0,6.0,75,0.00,,,0.00,VWS V14.01,2013-06-15 15:01:00,
2013-06-15 10:02:00,74.1,65.7,30.05,ESE,112,6.0,6.0,75,0.00,,,0.00,VWS V14.01,2013-06-15 15:02:00,
2013-06-15 10:03:00,74.1,65.7,30.05,SE,135,0.8,6.0,75,0.00,,,0.00,VWS V14.01,2013-06-15 15:03:00,
2013-06-15 10:04:00,74.1,65.7,30.05,SE,135,0.8,0.8,75,0.00,,,0.00,VWS V14.01,2013-06-15 15:04:00,
2013-06-15 10:05:00,74.1,65.7,30.05,SE,135,0.8,0.8,75,0.00,,,0.00,VWS V14.01,2013-06-15 15:05:00,
2013-06-15 10:06:00,73.9,65.1,30.05,SSE,158,0.0,0.0,74,0.00,,,0.00,VWS V14.01,2013-06-15 15:06:00,
2013-06-15 10:07:00,74.4,66.0,30.05,South,180,0.0,0.0,75,0.00,,,0.00,VWS V14.01,2013-06-15 15:07:00,
2013-06-15 10:08:00,74.4,66.0,30.05,South,180,0.0,0.0,75,0.00,,,0.00,VWS V14.01,2013-06-15 15:08:00,
2013-06-15 10:09:00,74.4,66.0,30.05,SSE,158,4.6,4.6,75,0.00,,,0.00,VWS V14.01,2013-06-15 15:09:00,
2013-06-15 10:10:00,74.4,66.0,30.05,SSE,158,4.6,4.6,75,0.00,,,0.00,VWS V14.01,2013-06-15 15:10:00,
2013-06-15 10:11:00,75.3,66.1,30.05,SSE,158,0.0,4.6,73,0.00,,,0.00,VWS V14.01,2013-06-15 15:11:00,
2013-06-15 10:12:00,75.5,66.2,30.05,SSE,158,0.0,0.0,73,0.00,,,0.00,VWS V14.01,2013-06-15 15:12:00,
2013-06-15 10:13:00,75.5,66.2,30.05,SSE,158,0.0,0.0,73,0.00,,,0.00,VWS V14.01,2013-06-15 15:13:00,
2013-06-15 10:14:00,76.2,66.5,30.05,SSE,158,0.0,0.0,72,0.00,,,0.00,VWS V14.01,2013-06-15 15:14:00,
2013-06-15 10:15:00,76.2,66.5,30.05,SSE,158,0.0,0.0,72,0.00,,,0.00,VWS V14.01,2013-06-15 15:15:00,
2013-06-15 10:16:00,76.6,66.5,30.05,SSE,158,6.0,6.0,71,0.00,,,0.00,VWS V14.01,2013-06-15 15:16:00,
2013-06-15 10:17:00,76.6,66.5,30.05,SSE,158,6.0,6.0,71,0.00,,,0.00,VWS V14.01,2013-06-15 15:17:00,
2013-06-15 10:18:00,76.6,66.1,30.05,South,180,6.9,6.9,70,0.00,,,0.00,VWS V14.01,2013-06-15 15:18:00,
2013-06-15 10:19:00,76.6,66.1,30.05,South,180,6.9,6.9,70,0.00,,,0.00,VWS V14.01,2013-06-15 15:19:00,
2013-06-15 10:20:00,76.6,66.1,30.05,South,180,6.9,6.9,70,0.00,,,0.00,VWS V14.01,2013-06-15 15:20:00,
2013-06-15 10:21:00,76.2,65.3,30.05,SSW,202,5.1,5.1,69,0.00,,,0.00,VWS V14.01,2013-06-15 15:21:00,
2013-06-15 10:22:00,76.6,65.7,30.05,SSW,202,0.0,5.1,69,0.00,,,0.00,VWS V14.01,2013-06-15 15:22:00,
2013-06-15 10:23:00,76.6,65.7,30.05,SSW,202,0.0,0.0,69,0.00,,,0.00,VWS V14.01,2013-06-15 15:23:00,
2013-06-15 10:24:00,77.1,66.2,30.05,SSW,202,4.9,4.9,69,0.00,,,0.00,VWS V14.01,2013-06-15 15:24:00,
2013-06-15 10:25:00,77.1,66.2,30.05,SSW,202,4.9,4.9,69,0.00,,,0.00,VWS V14.01,2013-06-15 15:25:00,
2013-06-15 10:26:00,77.1,66.2,30.05,ESE,112,0.0,4.9,69,0.00,,,0.00,VWS V14.01,2013-06-15 15:26:00,
2013-06-15 10:27:00,77.3,66.3,30.05,ESE,112,0.0,0.0,69,0.00,,,0.00,VWS V14.01,2013-06-15 15:27:00,
2013-06-15 10:28:00,77.3,66.3,30.05,ESE,112,0.0,0.0,69,0.00,,,0.00,VWS V14.01,2013-06-15 15:28:00,
2013-06-15 10:29:00,77.7,67.1,30.05,South,180,0.0,0.0,70,0.00,,,0.00,VWS V14.01,2013-06-15 15:29:00,
2013-06-15 10:30:00,77.7,67.1,30.05,South,180,0.0,0.0,70,0.00,,,0.00,VWS V14.01,2013-06-15 15:30:00,
2013-06-15 10:31:00,78.0,66.6,30.05,SSW,202,1.7,1.7,68,0.00,,,0.00,VWS V14.01,2013-06-15 15:31:00,
2013-06-15 10:32:00,78.0,66.6,30.05,SSW,202,1.7,1.7,68,0.00,,,0.00,VWS V14.01,2013-06-15 15:32:00,
2013-06-15 10:33:00,78.4,67.0,30.05,SSW,202,0.0,1.7,68,0.00,,,0.00,VWS V14.01,2013-06-15 15:33:00,
2013-06-15 10:34:00,78.4,67.0,30.05,SSW,202,0.0,0.0,68,0.00,,,0.00,VWS V14.01,2013-06-15 15:34:00,
2013-06-15 10:35:00,78.4,67.0,30.05,SSW,202,0.0,0.0,68,0.00,,,0.00,VWS V14.01,2013-06-15 15:35:00,
2013-06-15 10:36:00,78.9,67.0,30.05,SSW,202,4.4,4.4,67,0.00,,,0.00,VWS V14.01,2013-06-15 15:36:00,
2013-06-15 10:37:00,78.6,66.3,30.05,SSW,202,7.8,7.8,66,0.00,,,0.00,VWS V14.01,2013-06-15 15:37:00,
2013-06-15 10:38:00,78.6,66.3,30.05,SSW,202,7.8,7.8,66,0.00,,,0.00,VWS V14.01,2013-06-15 15:38:00,
2013-06-15 10:39:00,78.6,66.3,30.05,South,180,0.0,7.8,66,0.00,,,0.00,VWS V14.01,2013-06-15 15:39:00,
2013-06-15 10:40:00,78.6,66.3,30.05,South,180,0.0,0.0,66,0.00,,,0.00,VWS V14.01,2013-06-15 15:40:00,
2013-06-15 10:41:00,78.6,66.3,30.05,SSW,202,0.4,0.4,66,0.00,,,0.00,VWS V14.01,2013-06-15 15:41:00,
2013-06-15 10:42:00,78.6,66.3,30.05,SSW,202,0.4,0.4,66,0.00,,,0.00,VWS V14.01,2013-06-15 15:42:00,
2013-06-15 10:43:00,78.6,66.3,30.05,SSW,202,0.4,0.4,66,0.00,,,0.00,VWS V14.01,2013-06-15 15:43:00,
2013-06-15 10:44:00,78.9,67.0,30.05,SE,135,1.3,1.3,67,0.00,,,0.00,VWS V14.01,2013-06-15 15:44:00,
2013-06-15 10:45:00,78.9,67.0,30.05,SE,135,1.3,1.3,67,0.00,,,0.00,VWS V14.01,2013-06-15 15:45:00,
2013-06-15 10:46:00,78.9,67.0,30.05,SE,135,0.0,1.3,67,0.00,,,0.00,VWS V14.01,2013-06-15 15:46:00,
2013-06-15 10:47:00,78.9,67.0,30.05,SE,135,0.0,0.0,67,0.00,,,0.00,VWS V14.01,2013-06-15 15:47:00,
2013-06-15 10:48:00,79.3,67.4,30.05,SSE,158,0.0,0.0,67,0.00,,,0.00,VWS V14.01,2013-06-15 15:48:00,
2013-06-15 10:49:00,79.3,67.4,30.05,SSE,158,0.0,0.0,67,0.00,,,0.00,VWS V14.01,2013-06-15 15:49:00,
2013-06-15 10:50:00,79.3,67.4,30.05,SSE,158,0.0,0.0,67,0.00,,,0.00,VWS V14.01,2013-06-15 15:50:00,
2013-06-15 10:51:00,80.0,68.1,30.05,SE,135,1.1,1.1,67,0.00,,,0.00,VWS V14.01,2013-06-15 15:51:00,
2013-06-15 10:52:00,80.2,67.8,30.05,South,180,0.0,1.1,66,0.00,,,0.00,VWS V14.01,2013-06-15 15:52:00,
2013-06-15 10:53:00,80.2,67.8,30.05,South,180,0.0,0.0,66,0.00,,,0.00,VWS V14.01,2013-06-15 15:53:00,
2013-06-15 10:54:00,80.2,67.8,30.05,SSW,202,4.9,4.9,66,0.00,,,0.00,VWS V14.01,2013-06-15 15:54:00,
2013-06-15 10:55:00,80.2,67.8,30.05,SSW,202,4.9,4.9,66,0.00,,,0.00,VWS V14.01,2013-06-15 15:55:00,
2013-06-15 10:56:00,80.7,68.3,30.05,SSW,202,5.1,5.1,66,0.00,,,0.00,VWS V14.01,2013-06-15 15:56:00,
2013-06-15 10:57:00,80.7,67.4,30.05,SSW,202,5.1,5.1,64,0.00,,,0.00,VWS V14.01,2013-06-15 15:57:00,
2013-06-15 10:58:00,80.7,67.4,30.05,SSW,202,5.1,5.1,64,0.00,,,0.00,VWS V14.01,2013-06-15 15:58:00,
2013-06-15 10:59:00,80.7,66.9,30.05,SSW,202,8.7,8.7,63,0.00,,,0.00,VWS V14.01,2013-06-15 15:59:00,
2013-06-15 11:00:00,80.7,66.9,30.05,SSW,202,8.7,8.7,63,0.00,,,0.00,VWS V14.01,2013-06-15 16:00:00,
2013-06-15 11:01:00,81.3,67.1,30.05,SW,225,2.9,8.7,62,0.00,,,0.00,VWS V14.01,2013-06-15 16:01:00,
2013-06-15 11:02:00,81.3,67.1,30.05,SW,225,2.9,2.9,62,0.00,,,0.00,VWS V14.01,2013-06-15 16:02:00,
2013-06-15 11:03:00,81.5,68.2,30.05,SSW,202,6.2,6.2,64,0.00,,,0.00,VWS V14.01,2013-06-15 16:03:00,
2013-06-15 11:04:00,81.5,68.2,30.05,SSW,202,6.2,6.2,64,0.00,,,0.00,VWS V14.01,2013-06-15 16:04:00,
2013-06-15 11:05:00,81.5,68.2,30.05,SSW,202,6.2,6.2,64,0.00,,,0.00,VWS V14.01,2013-06-15 16:05:00,
2013-06-15 11:06:00,82.0,68.2,30.05,SSW,202,1.1,1.1,63,0.00,,,0.00,VWS V14.01,2013-06-15 16:06:00,
2013-06-15 11:07:00,82.0,67.2,30.04,SW,225,5.8,5.8,61,0.00,,,0.00,VWS V14.01,2013-06-15 16:07:00,
2013-06-15 11:08:00,82.0,67.2,30.04,SW,225,5.8,5.8,61,0.00,,,0.00,VWS V14.01,2013-06-15 16:08:00,
2013-06-15 11:09:00,81.6,66.9,30.05,SSE,158,0.4,5.8,61,0.00,,,0.00,VWS V14.01,2013-06-15 16:09:00,
2013-06-15 11:10:00,81.6,66.9,30.05,SSE,158,0.4,0.4,61,0.00,,,0.00,VWS V14.01,2013-06-15 16:10:00,
2013-06-15 11:11:00,81.6,68.2,30.05,SW,225,4.4,4.4,64,0.00,,,0.00,VWS V14.01,2013-06-15 16:11:00,
2013-06-15 11:12:00,81.1,67.8,30.04,SW,225,4.4,4.4,64,0.00,,,0.00,VWS V14.01,2013-06-15 16:12:00,
2013-06-15 11:13:00,81.1,67.8,30.04,SW,225,4.4,4.4,64,0.00,,,0.00,VWS V14.01,2013-06-15 16:13:00,
2013-06-15 11:14:00,81.6,66.9,30.04,SSW,202,0.0,4.4,61,0.00,,,0.00,VWS V14.01,2013-06-15 16:14:00,
2013-06-15 11:15:00,81.6,66.9,30.04,SSW,202,0.0,0.0,61,0.00,,,0.00,VWS V14.01,2013-06-15 16:15:00,
2013-06-15 11:16:00,82.2,67.9,30.04,South,180,10.5,10.5,62,0.00,,,0.00,VWS V14.01,2013-06-15 16:16:00,
2013-06-15 11:17:00,82.2,67.9,30.05,South,180,10.5,10.5,62,0.00,,,0.00,VWS V14.01,2013-06-15 16:17:00,
2013-06-15 11:18:00,82.2,67.9,30.04,SSW,202,6.2,10.5,62,0.00,,,0.00,VWS V14.01,2013-06-15 16:18:00,
2013-06-15 11:19:00,82.2,67.9,30.04,SSW,202,6.2,6.2,62,0.00,,,0.00,VWS V14.01,2013-06-15 16:19:00,
2013-06-15 11:20:00,82.2,67.9,30.04,SSW,202,6.2,6.2,62,0.00,,,0.00,VWS V14.01,2013-06-15 16:20:00,
2013-06-15 11:21:00,81.6,66.9,30.04,South,180,10.2,10.2,61,0.00,,,0.00,VWS V14.01,2013-06-15 16:21:00,
2013-06-15 11:22:00,80.9,67.1,30.04,SW,225,9.6,10.2,63,0.00,,,0.00,VWS V14.01,2013-06-15 16:22:00,
2013-06-15 11:23:00,80.9,67.1,30.04,SW,225,9.6,9.6,63,0.00,,,0.00,VWS V14.01,2013-06-15 16:23:00,
2013-06-15 11:24:00,80.2,66.0,30.04,SW,225,5.3,9.6,62,0.00,,,0.00,VWS V14.01,2013-06-15 16:24:00,
2013-06-15 11:25:00,80.2,66.0,30.04,SW,225,5.3,5.3,62,0.00,,,0.00,VWS V14.01,2013-06-15 16:25:00,
2013-06-15 11:26:00,79.7,66.9,30.04,SSW,202,9.8,9.8,65,0.00,,,0.00,VWS V14.01,2013-06-15 16:26:00,
2013-06-15 11:27:00,79.7,66.9,30.04,SSW,202,9.8,9.8,65,0.00,,,0.00,VWS V14.01,2013-06-15 16:27:00,
2013-06-15 11:28:00,79.7,66.9,30.04,SSW,202,9.8,9.8,65,0.00,,,0.00,VWS V14.01,2013-06-15 16:28:00,
2013-06-15 11:29:00,79.3,66.1,30.04,SSW,202,6.2,9.8,64,0.00,,,0.00,VWS V14.01,2013-06-15 16:29:00,
2013-06-15 11:30:00,79.3,66.1,30.04,SSW,202,6.2,6.2,64,0.00,,,0.00,VWS V14.01,2013-06-15 16:30:00,
2013-06-15 11:31:00,79.1,66.3,30.04,SW,225,10.0,10.0,65,0.00,,,0.00,VWS V14.01,2013-06-15 16:31:00,
2013-06-15 11:32:00,79.1,66.3,30.04,SW,225,10.0,10.0,65,0.00,,,0.00,VWS V14.01,2013-06-15 16:32:00,
2013-06-15 11:33:00,79.1,66.3,30.04,SW,225,6.9,10.0,65,0.00,,,0.00,VWS V14.01,2013-06-15 16:33:00,
2013-06-15 11:34:00,79.1,66.3,30.04,SW,225,6.9,6.9,65,0.00,,,0.00,VWS V14.01,2013-06-15 16:34:00,
2013-06-15 11:35:00,79.1,66.3,30.04,SW,225,6.9,6.9,65,0.00,,,0.00,VWS V14.01,2013-06-15 16:35:00,
2013-06-15 11:36:00,78.9,66.2,30.04,SW,225,6.4,6.4,65,0.00,,,0.00,VWS V14.01,2013-06-15 16:36:00,
2013-06-15 11:37:00,79.1,66.3,30.04,SSW,202,8.2,8.2,65,0.00,,,0.00,VWS V14.01,2013-06-15 16:37:00,
2013-06-15 11:38:00,79.1,66.3,30.04,SSW,202,8.2,8.2,65,0.00,,,0.00,VWS V14.01,2013-06-15 16:38:00,
2013-06-15 11:39:00,79.5,67.2,30.04,SSW,202,7.8,8.2,66,0.00,,,0.00,VWS V14.01,2013-06-15 16:39:00,
2013-06-15 11:40:00,79.5,67.2,30.04,SSW,202,7.8,7.8,66,0.00,,,0.00,VWS V14.01,2013-06-15 16:40:00,
2013-06-15 11:41:00,79.5,67.2,30.05,SW,225,9.3,9.3,66,0.00,,,0.00,VWS V14.01,2013-06-15 16:41:00,
2013-06-15 11:42:00,79.5,67.2,30.04,SW,225,9.3,9.3,66,0.00,,,0.00,VWS V14.01,2013-06-15 16:42:00,
2013-06-15 11:43:00,79.5,67.2,30.05,SW,225,9.3,9.3,66,0.00,,,0.00,VWS V14.01,2013-06-15 16:43:00,
2013-06-15 11:44:00,79.8,67.0,30.04,SW,225,10.7,10.7,65,0.00,,,0.00,VWS V14.01,2013-06-15 16:44:00,
2013-06-15 11:45:00,79.8,67.0,30.04,SW,225,10.7,10.7,65,0.00,,,0.00,VWS V14.01,2013-06-15 16:45:00,
2013-06-15 11:46:00,80.2,66.9,30.04,SSW,202,8.9,10.7,64,0.00,,,0.00,VWS V14.01,2013-06-15 16:46:00,
2013-06-15 11:47:00,80.2,66.9,30.04,SSW,202,8.9,8.9,64,0.00,,,0.00,VWS V14.01,2013-06-15 16:47:00,
2013-06-15 11:48:00,80.2,67.4,30.04,SSW,202,4.6,8.9,65,0.00,,,0.00,VWS V14.01,2013-06-15 16:48:00,
2013-06-15 11:49:00,80.2,67.4,30.04,SSW,202,4.6,4.6,65,0.00,,,0.00,VWS V14.01,2013-06-15 16:49:00,
2013-06-15 11:50:00,80.2,67.4,30.04,SSW,202,4.6,4.6,65,0.00,,,0.00,VWS V14.01,2013-06-15 16:50:00,
2013-06-15 11:51:00,80.7,67.8,30.04,SSW,202,5.8,5.8,65,0.00,,,0.00,VWS V14.01,2013-06-15 16:51:00,
2013-06-15 11:52:00,81.3,68.4,30.04,SSW,202,6.4,6.4,65,0.00,,,0.00,VWS V14.01,2013-06-15 16:52:00,
2013-06-15 11:53:00,81.3,68.4,30.04,SSW,202,6.4,6.4,65,0.00,,,0.00,VWS V14.01,2013-06-15 16:53:00,
2013-06-15 11:54:00,82.0,69.1,30.04,SW,225,2.2,6.4,65,0.00,,,0.00,VWS V14.01,2013-06-15 16:54:00,
2013-06-15 11:55:00,82.0,69.1,30.04,SW,225,2.2,2.2,65,0.00,,,0.00,VWS V14.01,2013-06-15 16:55:00,
2013-06-15 11:56:00,82.0,69.1,30.04,SW,225,7.1,7.1,65,0.00,,,0.00,VWS V14.01,2013-06-15 16:56:00,
2013-06-15 11:57:00,82.0,68.2,30.04,SW,225,7.1,7.1,63,0.00,,,0.00,VWS V14.01,2013-06-15 16:57:00,
2013-06-15 11:58:00,82.0,68.2,30.04,SW,225,7.1,7.1,63,0.00,,,0.00,VWS V14.01,2013-06-15 16:58:00,
2013-06-15 11:59:00,82.2,68.8,30.04,SSW,202,11.4,11.4,64,0.00,,,0.00,VWS V14.01,2013-06-15 16:59:00,
2013-06-15 12:00:00,82.2,68.8,30.04,SSW,202,11.4,11.4,64,0.00,,,0.00,VWS V14.01,2013-06-15 17:00:00,
2013-06-15 12:01:00,82.2,67.9,30.04,SW,225,10.5,11.4,62,0.00,,,0.00,VWS V14.01,2013-06-15 17:01:00,
2013-06-15 12:02:00,82.2,67.9,30.04,SW,225,10.5,10.5,62,0.00,,,0.00,VWS V14.01,2013-06-15 17:02:00,
2013-06-15 12:03:00,82.0,67.7,30.04,SW,225,6.4,10.5,62,0.00,,,0.00,VWS V14.01,2013-06-15 17:03:00,
2013-06-15 12:04:00,82.0,67.7,30.03,SW,225,6.4,6.4,62,0.00,,,0.00,VWS V14.01,2013-06-15 17:04:00,
2013-06-15 12:05:00,82.0,67.7,30.03,SW,225,6.4,6.4,62,0.00,,,0.00,VWS V14.01,2013-06-15 17:05:00,
2013-06-15 12:06:00,81.5,67.7,30.04,SSW,202,5.1,5.1,63,0.00,,,0.00,VWS V14.01,2013-06-15 17:06:00,
2013-06-15 12:07:00,81.6,67.3,30.04,SSW,202,11.1,11.1,62,0.00,,,0.00,VWS V14.01,2013-06-15 17:07:00,
2013-06-15 12:08:00,81.6,67.3,30.04,SSW,202,11.1,11.1,62,0.00,,,0.00,VWS V14.01,2013-06-15 17:08:00,
2013-06-15 12:09:00,81.3,67.1,30.04,SW,225,8.0,11.1,62,0.00,,,0.00,VWS V14.01,2013-06-15 17:09:00,
2013-06-15 12:10:00,81.3,67.1,30.04,SW,225,8.0,8.0,62,0.00,,,0.00,VWS V14.01,2013-06-15 17:10:00,
2013-06-15 12:11:00,81.3,67.1,30.04,SSW,202,11.4,11.4,62,0.00,,,0.00,VWS V14.01,2013-06-15 17:11:00,
2013-06-15 12:12:00,81.3,67.1,30.04,SSW,202,11.4,11.4,62,0.00,,,0.00,VWS V14.01,2013-06-15 17:12:00,
2013-06-15 12:13:00,81.3,67.1,30.04,SSW,202,11.4,11.4,62,0.00,,,0.00,VWS V14.01,2013-06-15 17:13:00,
2013-06-15 12:14:00,81.5,67.2,30.04,SSW,202,4.4,11.4,62,0.00,,,0.00,VWS V14.01,2013-06-15 17:14:00,
2013-06-15 12:15:00,81.5,67.2,30.04,SSW,202,4.4,4.4,62,0.00,,,0.00,VWS V14.01,2013-06-15 17:15:00,
2013-06-15 12:16:00,81.8,67.1,30.03,SW,225,6.4,6.4,61,0.00,,,0.00,VWS V14.01,2013-06-15 17:16:00,
2013-06-15 12:17:00,81.8,67.1,30.03,SW,225,6.4,6.4,61,0.00,,,0.00,VWS V14.01,2013-06-15 17:17:00,
2013-06-15 12:18:00,82.0,68.6,30.04,SSW,202,8.5,8.5,64,0.00,,,0.00,VWS V14.01,2013-06-15 17:18:00,
2013-06-15 12:19:00,82.0,68.6,30.04,SSW,202,8.5,8.5,64,0.00,,,0.00,VWS V14.01,2013-06-15 17:19:00,
2013-06-15 12:20:00,82.0,68.6,30.04,SSW,202,8.5,8.5,64,0.00,,,0.00,VWS V14.01,2013-06-15 17:20:00,
2013-06-15 12:21:00,81.6,67.3,30.05,SSW,202,8.7,8.7,62,0.00,,,0.00,VWS V14.01,2013-06-15 17:21:00,
2013-06-15 12:22:00,81.1,66.9,30.04,SW,225,5.5,8.7,62,0.00,,,0.00,VWS V14.01,2013-06-15 17:22:00,
2013-06-15 12:23:00,81.1,66.9,30.04,SW,225,5.5,5.5,62,0.00,,,0.00,VWS V14.01,2013-06-15 17:23:00,
2013-06-15 12:24:00,80.6,66.8,30.04,SW,225,2.0,5.5,63,0.00,,,0.00,VWS V14.01,2013-06-15 17:24:00,
2013-06-15 12:25:00,80.6,66.8,30.04,SW,225,2.0,2.0,63,0.00,,,0.00,VWS V14.01,2013-06-15 17:25:00,
2013-06-15 12:26:00,80.6,66.8,30.04,SW,225,5.5,5.5,63,0.00,,,0.00,VWS V14.01,2013-06-15 17:26:00,
2013-06-15 12:27:00,80.6,67.3,30.04,SW,225,5.5,5.5,64,0.00,,,0.00,VWS V14.01,2013-06-15 17:27:00,
2013-06-15 12:28:00,80.7,67.4,30.04,SSW,202,6.4,6.4,64,0.00,,,0.00,VWS V14.01,2013-06-15 17:28:00,
2013-06-15 12:29:00,80.7,66.9,30.04,SSW,202,6.4,6.4,63,0.00,,,0.00,VWS V14.01,2013-06-15 17:29:00,
2013-06-15 12:30:00,80.7,66.9,30.04,SSW,202,6.4,6.4,63,0.00,,,0.00,VWS V14.01,2013-06-15 17:30:00,
2013-06-15 12:31:00,80.9,67.1,30.04,SSW,202,6.7,6.7,63,0.00,,,0.00,VWS V14.01,2013-06-15 17:31:00,
2013-06-15 12:32:00,80.9,67.1,30.04,SSW,202,6.7,6.7,63,0.00,,,0.00,VWS V14.01,2013-06-15 17:32:00,
2013-06-15 12:33:00,81.3,67.1,30.04,SSW,202,9.8,9.8,62,0.00,,,0.00,VWS V14.01,2013-06-15 17:33:00,
2013-06-15 12:34:00,81.3,67.1,30.04,SSW,202,9.8,9.8,62,0.00,,,0.00,VWS V14.01,2013-06-15 17:34:00,
2013-06-15 12:35:00,81.3,67.1,30.04,SSW,202,9.8,9.8,62,0.00,,,0.00,VWS V14.01,2013-06-15 17:35:00,
2013-06-15 12:36:00,81.3,67.1,30.04,SW,225,10.5,10.5,62,0.00,,,0.00,VWS V14.01,2013-06-15 17:36:00,
2013-06-15 12:37:00,81.1,66.4,30.04,SSW,202,8.0,10.5,61,0.00,,,0.00,VWS V14.01,2013-06-15 17:37:00,
2013-06-15 12:38:00,81.1,66.4,30.04,SSW,202,8.0,8.0,61,0.00,,,0.00,VWS V14.01,2013-06-15 17:38:00,
2013-06-15 12:39:00,80.7,66.9,30.04,SW,225,7.8,8.0,63,0.00,,,0.00,VWS V14.01,2013-06-15 17:39:00,
2013-06-15 12:40:00,80.7,66.9,30.04,SW,225,7.8,7.8,63,0.00,,,0.00,VWS V14.01,2013-06-15 17:40:00,
2013-06-15 12:41:00,80.6,67.3,30.03,SSW,202,5.8,7.8,64,0.00,,,0.00,VWS V14.01,2013-06-15 17:41:00,
2013-06-15 12:42:00,80.6,67.3,30.04,SSW,202,5.8,5.8,64,0.00,,,0.00,VWS V14.01,2013-06-15 17:42:00,
2013-06-15 12:43:00,80.6,67.3,30.04,SSW,202,5.8,5.8,64,0.00,,,0.00,VWS V14.01,2013-06-15 17:43:00,
2013-06-15 12:44:00,80.4,67.1,30.03,SSW,202,7.6,7.6,64,0.00,,,0.00,VWS V14.01,2013-06-15 17:44:00,
2013-06-15 12:45:00,80.4,67.1,30.03,SSW,202,7.6,7.6,64,0.00,,,0.00,VWS V14.01,2013-06-15 17:45:00,
2013-06-15 12:46:00,80.2,66.9,30.03,SSW,202,5.1,7.6,64,0.00,,,0.00,VWS V14.01,2013-06-15 17:46:00,
2013-06-15 12:47:00,80.2,66.9,30.03,SSW,202,5.1,5.1,64,0.00,,,0.00,VWS V14.01,2013-06-15 17:47:00,
2013-06-15 12:48:00,79.8,66.6,30.03,SSW,202,1.7,5.1,64,0.00,,,0.00,VWS V14.01,2013-06-15 17:48:00,
2013-06-15 12:49:00,79.8,66.6,30.03,SSW,202,1.7,1.7,64,0.00,,,0.00,VWS V14.01,2013-06-15 17:49:00,
2013-06-15 12:50:00,79.8,66.6,30.03,SSW,202,1.7,1.7,64,0.00,,,0.00,VWS V14.01,2013-06-15 17:50:00,
2013-06-15 12:51:00,79.8,66.6,30.03,SSW,202,1.5,1.5,64,0.00,,,0.00,VWS V14.01,2013-06-15 17:51:00,
2013-06-15 12:52:00,79.8,67.0,30.03,SSW,202,3.8,3.8,65,0.00,,,0.00,VWS V14.01,2013-06-15 17:52:00,
2013-06-15 12:53:00,79.8,67.0,30.03,SSW,202,3.8,3.8,65,0.00,,,0.00,VWS V14.01,2013-06-15 17:53:00,
2013-06-15 12:54:00,79.8,67.0,30.03,SSW,202,1.1,3.8,65,0.00,,,0.00,VWS V14.01,2013-06-15 17:54:00,
2013-06-15 12:55:00,79.8,67.0,30.03,SSW,202,1.1,1.1,65,0.00,,,0.00,VWS V14.01,2013-06-15 17:55:00,
2013-06-15 12:56:00,79.8,67.4,30.03,South,180,3.3,3.3,66,0.00,,,0.00,VWS V14.01,2013-06-15 17:56:00,
2013-06-15 12:57:00,79.8,67.4,30.03,South,180,3.3,3.3,66,0.00,,,0.00,VWS V14.01,2013-06-15 17:57:00,
2013-06-15 12:58:00,79.8,67.4,30.03,South,180,3.3,3.3,66,0.00,,,0.00,VWS V14.01,2013-06-15 17:58:00,
2013-06-15 12:59:00,79.8,67.0,30.04,SSW,202,4.2,4.2,65,0.00,,,0.00,VWS V14.01,2013-06-15 17:59:00,
2013-06-15 13:00:00,79.8,67.0,30.04,SSW,202,4.2,4.2,65,0.00,,,0.00,VWS V14.01,2013-06-15 18:00:00,
2013-06-15 13:01:00,79.8,67.0,30.04,SSW,202,2.9,4.2,65,0.00,,,0.00,VWS V14.01,2013-06-15 18:01:00,
2013-06-15 13:02:00,79.8,67.0,30.04,SSW,202,2.9,2.9,65,0.00,,,0.00,VWS V14.01,2013-06-15 18:02:00,
2013-06-15 13:03:00,80.2,67.4,30.04,SSW,202,4.2,4.2,65,0.00,,,0.00,VWS V14.01,2013-06-15 18:03:00,
2013-06-15 13:04:00,80.2,67.4,30.04,SSW,202,4.2,4.2,65,0.00,,,0.00,VWS V14.01,2013-06-15 18:04:00,
2013-06-15 13:05:00,80.2,67.4,30.04,SSW,202,4.2,4.2,65,0.00,,,0.00,VWS V14.01,2013-06-15 18:05:00,
2013-06-15 13:06:00,80.4,68.0,30.04,SSW,202,1.3,1.3,66,0.00,,,0.00,VWS V14.01,2013-06-15 18:06:00,
2013-06-15 13:07:00,81.1,68.2,30.04,SW,225,6.7,6.7,65,0.00,,,0.00,VWS V14.01,2013-06-15 18:07:00,
2013-06-15 13:08:00,81.1,68.2,30.04,SW,225,6.7,6.7,65,0.00,,,0.00,VWS V14.01,2013-06-15 18:08:00,
2013-06-15 13:09:00,81.6,67.8,30.04,SSW,202,6.9,6.9,63,0.00,,,0.00,VWS V14.01,2013-06-15 18:09:00,
2013-06-15 13:10:00,81.6,67.8,30.04,SSW,202,6.9,6.9,63,0.00,,,0.00,VWS V14.01,2013-06-15 18:10:00,
2013-06-15 13:11:00,82.2,67.9,30.04,SSW,202,6.2,6.9,62,0.00,,,0.00,VWS V14.01,2013-06-15 18:11:00,
2013-06-15 13:12:00,82.2,67.9,30.03,SSW,202,6.2,6.2,62,0.00,,,0.00,VWS V14.01,2013-06-15 18:12:00,
2013-06-15 13:13:00,82.2,67.9,30.03,SSW,202,6.2,6.2,62,0.00,,,0.00,VWS V14.01,2013-06-15 18:13:00,
2013-06-15 13:14:00,82.2,66.9,30.04,SSW,202,3.8,6.2,60,0.00,,,0.00,VWS V14.01,2013-06-15 18:14:00,
2013-06-15 13:15:00,82.2,66.9,30.04,SSW,202,3.8,3.8,60,0.00,,,0.00,VWS V14.01,2013-06-15 18:15:00,
2013-06-15 13:16:00,82.0,66.8,30.03,SSW,202,4.6,4.6,60,0.00,,,0.00,VWS V14.01,2013-06-15 18:16:00,
2013-06-15 13:17:00,82.0,66.8,30.03,SSW,202,4.6,4.6,60,0.00,,,0.00,VWS V14.01,2013-06-15 18:17:00,
2013-06-15 13:18:00,81.6,66.9,30.03,SW,225,4.2,4.6,61,0.00,,,0.00,VWS V14.01,2013-06-15 18:18:00,
2013-06-15 13:19:00,81.6,66.9,30.03,SW,225,4.2,4.2,61,0.00,,,0.00,VWS V14.01,2013-06-15 18:19:00,
2013-06-15 13:20:00,81.6,66.9,30.03,SW,225,4.2,4.2,61,0.00,,,0.00,VWS V14.01,2013-06-15 18:20:00,
2013-06-15 13:21:00,81.5,67.2,30.03,SSW,202,3.8,3.8,62,0.00,,,0.00,VWS V14.01,2013-06-15 18:21:00,
2013-06-15 13:22:00,81.1,66.4,30.03,SSW,202,0.8,3.8,61,0.00,,,0.00,VWS V14.01,2013-06-15 18:22:00,
2013-06-15 13:23:00,81.1,66.4,30.03,SSW,202,0.8,0.8,61,0.00,,,0.00,VWS V14.01,2013-06-15 18:23:00,
2013-06-15 13:24:00,81.1,66.4,30.03,SSW,202,3.1,3.1,61,0.00,,,0.00,VWS V14.01,2013-06-15 18:24:00,
2013-06-15 13:25:00,81.1,66.4,30.03,SSW,202,3.1,3.1,61,0.00,,,0.00,VWS V14.01,2013-06-15 18:25:00,
2013-06-15 13:26:00,80.9,66.7,30.03,SSW,202,2.6,3.1,62,0.00,,,0.00,VWS V14.01,2013-06-15 18:26:00,
2013-06-15 13:27:00,80.9,66.7,30.03,SSW,202,2.6,2.6,62,0.00,,,0.00,VWS V14.01,2013-06-15 18:27:00,
2013-06-15 13:28:00,80.9,66.7,30.03,SSW,202,5.5,5.5,62,0.00,,,0.00,VWS V14.01,2013-06-15 18:28:00,
2013-06-15 13:29:00,80.9,66.7,30.03,SSW,202,5.5,5.5,62,0.00,,,0.00,VWS V14.01,2013-06-15 18:29:00,
2013-06-15 13:30:00,80.9,66.7,30.03,SSW,202,5.5,5.5,62,0.00,,,0.00,VWS V14.01,2013-06-15 18:30:00,
2013-06-15 13:31:00,80.9,66.7,30.03,SW,225,1.5,5.5,62,0.00,,,0.00,VWS V14.01,2013-06-15 18:31:00,
2013-06-15 13:32:00,80.9,66.7,30.03,SW,225,1.5,1.5,62,0.00,,,0.00,VWS V14.01,2013-06-15 18:32:00,
2013-06-15 13:33:00,81.3,67.5,30.03,SSW,202,5.3,5.3,63,0.00,,,0.00,VWS V14.01,2013-06-15 18:33:00,
2013-06-15 13:34:00,81.3,67.5,30.03,SSW,202,5.3,5.3,63,0.00,,,0.00,VWS V14.01,2013-06-15 18:34:00,
2013-06-15 13:58:00,79.9,67.5,30.04,South,180,3.4,3.4,66,99.99,,,99.99,VWS V14.01,2013-06-15 18:58:00,
2013-06-15 14:58:00,84.9,66.4,30.04,SSW,202,10.1,10.1,54,99.99,,,99.99,VWS V14.01,2013-06-15 19:58:00,
2013-06-15 15:58:00,80.1,66.8,30.03,SW,225,2.7,10.1,64,0.00,,,99.99,VWS V14.01,2013-06-15 20:58:00,
2013-06-15 16:58:00,79.5,67.2,30.01,SSW,202,11.2,11.2,66,0.00,,,99.99,VWS V14.01,2013-06-15 21:58:00,
2013-06-15 17:58:00,81.1,69.6,30.00,SW,225,0.0,11.2,68,0.00,,,99.99,VWS V14.01,2013-06-15 22:58:00,
2013-06-15 18:58:00,77.9,68.6,29.93,SSW,202,0.7,0.7,73,0.00,,,99.99,VWS V14.01,2013-06-15 23:58:00,
2013-06-15 19:58:00,76.8,68.7,29.96,SSW,202,6.3,6.3,76,0.00,,,99.99,VWS V14.01,2013-06-16 00:58:00,
2013-06-15 20:58:00,75.4,68.4,29.99,SW,225,6.0,6.3,79,0.00,,,99.99,VWS V14.01,2013-06-16 01:58:00,
2013-06-15 21:58:00,74.8,69.0,29.97,SW,225,4.9,6.0,82,0.00,,,99.99,VWS V14.01,2013-06-16 02:58:00,
2013-06-15 22:58:00,74.1,68.6,29.98,SW,225,6.9,6.9,83,0.00,,,99.99,VWS V14.01,2013-06-16 03:58:00,
2013-06-15 23:22:00,71.4,63.8,30.03,WNW,292,12.8,12.8,77,0.00,,,99.99,VWS V14.01,2013-06-16 04:22:00,
2013-06-15 23:27:00,70.3,63.8,30.02,West,270,7.8,12.8,80,0.00,,,0.00,VWS V14.01,2013-06-16 04:27:00,
2013-06-15 23:32:00,69.9,63.5,30.03,SW,225,6.0,12.8,80,0.00,,,0.00,VWS V14.01,2013-06-16 04:32:00,
2013-06-15 23:37:00,69.8,63.7,30.03,SW,225,6.2,12.8,81,0.00,,,0.00,VWS V14.01,2013-06-16 04:37:00,
2013-06-15 23:42:00,69.6,63.5,30.03,SW,225,11.1,12.8,81,0.00,,,0.00,VWS V14.01,2013-06-16 04:42:00,
2013-06-15 23:47:00,69.4,63.7,30.03,WSW,248,4.2,12.8,82,0.00,,,0.00,VWS V14.01,2013-06-16 04:47:00,
2013-06-15 23:52:00,69.0,63.3,30.02,SW,225,7.8,12.8,82,0.00,,,0.00,VWS V14.01,2013-06-16 04:52:00,
2013-06-15 23:57:00,69.0,63.3,30.02,SW,225,5.3,12.8,82,0.00,,,0.00,VWS V14.01,2013-06-16 04:57:00,